Time,TemperatureF,DewpointF,PressureIn,WindDirection,WindDirectionDegrees,WindSpeedMPH,WindSpeedGustMPH,Humidity,HourlyPrecipIn,Conditions,Clouds,dailyrainin,SoftwareType,DateUTC
2013-02-19 00:00:00,51.2,28.3,29.98,WSW,241,3.0,13.0,41,0.00,,,0.00,Wunderground v.1.15,2013-02-19 05:00:00,
2013-02-19 00:07:00,51.2,27.7,29.97,SSW,199,14.0,22.0,40,0.00,,,0.00,Wunderground v.1.15,2013-02-19 05:07:00,
2013-02-19 00:08:00,51.3,28.4,29.97,South,190,14.0,22.0,41,0.00,,,0.00,Wunderground v.1.15,2013-02-19 05:08:00,
2013-02-19 00:10:00,51.3,27.8,29.97,WNW,294,9.0,11.0,40,0.00,,,0.00,Wunderground v.1.15,2013-02-19 05:10:00,
2013-02-19 00:14:00,51.3,28.4,29.95,SSE,149,2.0,12.0,41,0.00,,,0.00,Wunderground v.1.15,2013-02-19 05:14:00,
2013-02-19 00:18:00,51.2,28.3,29.94,ENE,61,6.0,12.0,41,0.00,,,0.00,Wunderground v.1.15,2013-02-19 05:18:00,
2013-02-19 00:20:00,51.1,27.6,29.94,ESE,107,10.0,10.0,40,0.00,,,0.00,Wunderground v.1.15,2013-02-19 05:20:00,
2013-02-19 00:22:00,51.2,28.3,29.95,SE,146,6.0,11.0,41,0.00,,,0.00,Wunderground v.1.15,2013-02-19 05:22:00,
2013-02-19 00:24:00,51.1,28.2,29.95,SW,215,13.0,13.0,41,0.00,,,0.00,Wunderground v.1.15,2013-02-19 05:24:00,
2013-02-19 00:25:00,51.1,27.6,29.94,SW,218,6.0,13.0,40,0.00,,,0.00,Wunderground v.1.15,2013-02-19 05:25:00,
2013-02-19 00:31:00,50.9,28.0,29.94,SSE,162,6.0,10.0,41,0.00,,,0.00,Wunderground v.1.15,2013-02-19 05:31:00,
2013-02-19 00:33:00,50.9,27.4,29.93,SSW,196,5.0,13.0,40,0.00,,,0.00,Wunderground v.1.15,2013-02-19 05:33:00,
2013-02-19 00:37:00,50.9,27.4,29.93,SSE,157,16.0,16.0,40,0.00,,,0.00,Wunderground v.1.15,2013-02-19 05:37:00,
2013-02-19 00:38:00,50.9,28.0,29.93,ESE,120,15.0,16.0,41,0.00,,,0.00,Wunderground v.1.15,2013-02-19 05:38:00,
2013-02-19 00:44:00,50.9,27.4,29.94,WSW,242,4.0,11.0,40,0.00,,,0.00,Wunderground v.1.15,2013-02-19 05:44:00,
2013-02-19 00:45:00,50.9,27.4,29.94,SSE,149,11.0,11.0,40,0.00,,,0.00,Wunderground v.1.15,2013-02-19 05:45:00,
2013-02-19 00:47:00,50.9,27.4,29.93,ESE,113,6.0,11.0,40,0.00,,,0.00,Wunderground v.1.15,2013-02-19 05:47:00,
2013-02-19 00:50:00,50.9,27.4,29.92,SSW,196,7.0,9.0,40,0.00,,,0.00,Wunderground v.1.15,2013-02-19 05:50:00,
2013-02-19 00:54:00,51.0,26.9,29.94,SSE,155,6.0,11.0,39,0.00,,,0.00,Wunderground v.1.15,2013-02-19 05:54:00,
2013-02-19 00:55:00,51.0,26.9,29.93,SSW,198,17.0,17.0,39,0.00,,,0.00,Wunderground v.1.15,2013-02-19 05:55:00,
2013-02-19 01:00:00,51.0,27.5,29.93,SW,227,10.0,10.0,40,0.00,,,0.00,Wunderground v.1.15,2013-02-19 06:00:00,
2013-02-19 01:01:00,51.0,26.9,29.93,WSW,255,9.0,10.0,39,0.00,,,0.00,Wunderground v.1.15,2013-02-19 06:01:00,
2013-02-19 01:06:00,51.0,26.9,29.94,SSE,165,7.0,10.0,39,0.00,,,0.00,Wunderground v.1.15,2013-02-19 06:06:00,
2013-02-19 01:07:00,51.0,26.9,29.94,South,172,13.0,13.0,39,0.00,,,0.00,Wunderground v.1.15,2013-02-19 06:07:00,
2013-02-19 01:12:00,51.0,26.9,29.94,SE,146,13.0,13.0,39,0.00,,,0.00,Wunderground v.1.15,2013-02-19 06:12:00,
2013-02-19 01:14:00,51.0,27.5,29.95,South,186,5.0,13.0,40,0.00,,,0.00,Wunderground v.1.15,2013-02-19 06:14:00,
2013-02-19 01:18:00,50.9,26.8,29.97,SW,230,9.0,16.0,39,0.00,,,0.00,Wunderground v.1.15,2013-02-19 06:18:00,
2013-02-19 01:20:00,50.8,27.9,29.98,WSW,240,6.0,9.0,41,0.00,,,0.00,Wunderground v.1.15,2013-02-19 06:20:00,
2013-02-19 01:24:00,50.6,27.1,29.98,SW,214,4.0,14.0,40,0.00,,,0.00,Wunderground v.1.15,2013-02-19 06:24:00,
2013-02-19 01:25:00,50.6,27.1,29.98,SW,219,4.0,14.0,40,0.00,,,0.00,Wunderground v.1.15,2013-02-19 06:25:00,
2013-02-19 01:30:00,50.7,27.8,29.98,West,269,6.0,6.0,41,0.00,,,0.00,Wunderground v.1.15,2013-02-19 06:30:00,
2013-02-19 01:32:00,50.6,28.3,29.98,SW,222,6.0,8.0,42,0.00,,,0.00,Wunderground v.1.15,2013-02-19 06:32:00,
2013-02-19 01:34:00,50.3,30.8,29.98,SSW,213,4.0,8.0,47,0.00,,,0.00,Wunderground v.1.15,2013-02-19 06:34:00,
2013-02-19 01:35:00,50.0,30.5,29.98,SSW,213,6.0,8.0,47,0.00,,,0.00,Wunderground v.1.15,2013-02-19 06:35:00,
2013-02-19 01:38:00,48.8,31.9,29.97,SW,214,6.0,8.0,52,0.00,,,0.01,Wunderground v.1.15,2013-02-19 06:38:00,
2013-02-19 01:40:00,48.4,32.5,29.98,SW,233,1.0,5.0,54,0.00,,,0.01,Wunderground v.1.15,2013-02-19 06:40:00,
2013-02-19 01:42:00,47.9,32.5,29.97,South,187,5.0,8.0,55,0.00,,,0.01,Wunderground v.1.15,2013-02-19 06:42:00,
2013-02-19 01:43:00,47.7,31.9,29.97,SW,220,2.0,8.0,54,0.00,,,0.01,Wunderground v.1.15,2013-02-19 06:43:00,
2013-02-19 01:44:00,47.4,30.6,29.97,SW,233,11.0,11.0,52,0.00,,,0.01,Wunderground v.1.15,2013-02-19 06:44:00,
2013-02-19 01:46:00,47.4,29.7,29.96,SSW,201,8.0,11.0,50,0.00,,,0.01,Wunderground v.1.15,2013-02-19 06:46:00,
2013-02-19 01:49:00,47.6,29.9,29.96,SSW,211,2.0,5.0,50,0.04,,,0.02,Wunderground v.1.15,2013-02-19 06:49:00,
2013-02-19 01:52:00,47.5,30.7,29.97,SSW,209,5.0,6.0,52,0.04,,,0.02,Wunderground v.1.15,2013-02-19 06:52:00,
2013-02-19 01:54:00,47.3,30.5,29.97,SW,217,7.0,10.0,52,0.04,,,0.02,Wunderground v.1.15,2013-02-19 06:54:00,
2013-02-19 01:55:00,47.0,31.7,29.97,SSE,154,10.0,10.0,55,0.11,,,0.03,Wunderground v.1.15,2013-02-19 06:55:00,
2013-02-19 01:59:00,46.5,32.9,29.97,SW,236,1.0,10.0,59,0.11,,,0.03,Wunderground v.1.15,2013-02-19 06:59:00,
2013-02-19 02:01:00,46.1,34.6,29.97,SW,236,2.0,6.0,64,0.12,,,0.04,Wunderground v.1.15,2013-02-19 07:01:00,
2013-02-19 02:05:00,45.4,33.9,29.98,SW,233,4.0,8.0,64,0.15,,,0.05,Wunderground v.1.15,2013-02-19 07:05:00,
2013-02-19 02:06:00,45.3,34.2,29.99,SSW,205,5.0,8.0,65,0.15,,,0.05,Wunderground v.1.15,2013-02-19 07:06:00,
2013-02-19 02:10:00,45.4,32.7,29.98,SW,229,4.0,10.0,61,0.15,,,0.06,Wunderground v.1.15,2013-02-19 07:10:00,
2013-02-19 02:11:00,45.4,33.9,29.98,SSW,213,3.0,10.0,64,0.15,,,0.06,Wunderground v.1.15,2013-02-19 07:11:00,
2013-02-19 02:16:00,45.1,33.2,29.99,SW,234,5.0,14.0,63,0.08,,,0.06,Wunderground v.1.15,2013-02-19 07:16:00,
2013-02-19 02:17:00,45.0,33.9,29.99,SW,228,2.0,14.0,65,0.07,,,0.06,Wunderground v.1.15,2013-02-19 07:17:00,
2013-02-19 02:21:00,45.0,35.4,30.00,SW,224,1.0,5.0,69,0.05,,,0.07,Wunderground v.1.15,2013-02-19 07:21:00,
2013-02-19 02:22:00,45.0,34.7,30.00,SW,224,0.0,5.0,67,0.05,,,0.07,Wunderground v.1.15,2013-02-19 07:22:00,
2013-02-19 02:23:00,44.9,35.0,30.00,SW,224,4.0,5.0,68,0.05,,,0.07,Wunderground v.1.15,2013-02-19 07:23:00,
2013-02-19 02:26:00,44.6,36.1,30.01,SW,221,6.0,9.0,72,0.05,,,0.07,Wunderground v.1.15,2013-02-19 07:26:00,
2013-02-19 02:27:00,44.6,35.1,30.01,SW,219,8.0,10.0,69,0.05,,,0.07,Wunderground v.1.15,2013-02-19 07:27:00,
2013-02-19 02:28:00,44.6,35.4,30.01,SW,219,6.0,10.0,70,0.05,,,0.07,Wunderground v.1.15,2013-02-19 07:28:00,
2013-02-19 02:31:00,44.7,36.2,30.00,SW,225,3.0,6.0,72,0.08,,,0.08,Wunderground v.1.15,2013-02-19 07:31:00,
2013-02-19 02:32:00,44.6,36.1,30.00,SSW,213,5.0,6.0,72,0.08,,,0.08,Wunderground v.1.15,2013-02-19 07:32:00,
2013-02-19 02:33:00,44.6,36.1,30.00,SSW,213,2.0,6.0,72,0.08,,,0.08,Wunderground v.1.15,2013-02-19 07:33:00,
2013-02-19 02:37:00,44.2,36.4,30.00,SSE,162,8.0,10.0,74,0.12,,,0.09,Wunderground v.1.15,2013-02-19 07:37:00,
2013-02-19 02:38:00,44.2,36.4,30.00,SSW,208,4.0,12.0,74,0.12,,,0.09,Wunderground v.1.15,2013-02-19 07:38:00,
2013-02-19 02:42:00,44.2,36.8,30.00,SSW,200,6.0,10.0,75,0.07,,,0.10,Wunderground v.1.15,2013-02-19 07:42:00,
2013-02-19 02:43:00,44.2,36.4,30.00,SSW,200,4.0,10.0,74,0.07,,,0.10,Wunderground v.1.15,2013-02-19 07:43:00,
2013-02-19 02:44:00,44.3,36.2,30.00,South,186,4.0,10.0,73,0.07,,,0.10,Wunderground v.1.15,2013-02-19 07:44:00,
2013-02-19 02:47:00,44.6,36.5,30.00,SW,227,6.0,11.0,73,0.07,,,0.10,Wunderground v.1.15,2013-02-19 07:47:00,
2013-02-19 02:48:00,44.7,36.6,30.00,SW,224,7.0,11.0,73,0.07,,,0.10,Wunderground v.1.15,2013-02-19 07:48:00,
2013-02-19 02:49:00,44.8,36.7,30.00,SW,222,4.0,11.0,73,0.08,,,0.10,Wunderground v.1.15,2013-02-19 07:49:00,
2013-02-19 02:52:00,44.7,36.9,30.00,SW,228,6.0,10.0,74,0.08,,,0.11,Wunderground v.1.15,2013-02-19 07:52:00,
2013-02-19 02:53:00,44.7,36.2,30.00,SW,229,5.0,10.0,72,0.08,,,0.11,Wunderground v.1.15,2013-02-19 07:53:00,
2013-02-19 02:54:00,44.7,36.6,30.00,WSW,238,4.0,10.0,73,0.08,,,0.11,Wunderground v.1.15,2013-02-19 07:54:00,
2013-02-19 02:55:00,44.7,36.9,30.00,SSW,210,7.0,10.0,74,0.08,,,0.11,Wunderground v.1.15,2013-02-19 07:55:00,
2013-02-19 02:57:00,44.6,37.5,29.99,SW,223,3.0,10.0,76,0.07,,,0.11,Wunderground v.1.15,2013-02-19 07:57:00,
2013-02-19 02:58:00,44.5,37.1,30.00,SW,225,3.0,10.0,75,0.07,,,0.12,Wunderground v.1.15,2013-02-19 07:58:00,
2013-02-19 02:59:00,44.5,37.4,30.00,SW,225,5.0,10.0,76,0.07,,,0.12,Wunderground v.1.15,2013-02-19 07:59:00,
2013-02-19 03:00:00,44.4,37.3,30.00,SW,225,5.0,5.0,76,0.07,,,0.12,Wunderground v.1.15,2013-02-19 08:00:00,
2013-02-19 03:02:00,44.3,37.5,29.99,SW,222,3.0,7.0,77,0.21,,,0.13,Wunderground v.1.15,2013-02-19 08:02:00,
2013-02-19 03:03:00,44.2,37.8,29.99,SW,221,4.0,7.0,78,0.21,,,0.13,Wunderground v.1.15,2013-02-19 08:03:00,
2013-02-19 03:05:00,44.1,38.0,29.99,SW,220,3.0,7.0,79,0.15,,,0.14,Wunderground v.1.15,2013-02-19 08:05:00,
2013-02-19 03:07:00,44.1,38.0,29.99,SW,220,3.0,12.0,79,0.37,,,0.15,Wunderground v.1.15,2013-02-19 08:07:00,
2013-02-19 03:08:00,44.2,38.4,29.99,SW,220,1.0,12.0,80,0.32,,,0.15,Wunderground v.1.15,2013-02-19 08:08:00,
2013-02-19 03:10:00,44.1,38.6,29.99,SSW,212,5.0,5.0,81,0.18,,,0.15,Wunderground v.1.15,2013-02-19 08:10:00,
2013-02-19 03:13:00,44.2,38.7,29.98,SSW,211,5.0,9.0,81,0.15,,,0.16,Wunderground v.1.15,2013-02-19 08:13:00,
2013-02-19 03:15:00,44.2,38.7,29.98,South,176,4.0,12.0,81,0.26,,,0.17,Wunderground v.1.15,2013-02-19 08:15:00,
2013-02-19 03:18:00,44.4,38.9,29.97,SSW,203,5.0,14.0,81,0.52,,,0.19,Wunderground v.1.15,2013-02-19 08:18:00,
2013-02-19 03:19:00,44.5,39.0,29.97,SE,142,3.0,14.0,81,0.32,,,0.19,Wunderground v.1.15,2013-02-19 08:19:00,
2013-02-19 03:20:00,44.5,39.0,29.98,SW,231,7.0,7.0,81,0.32,,,0.20,Wunderground v.1.15,2013-02-19 08:20:00,
2013-02-19 03:23:00,44.5,39.3,29.99,SW,229,1.0,11.0,82,0.21,,,0.21,Wunderground v.1.15,2013-02-19 08:23:00,
2013-02-19 03:24:00,44.4,39.6,29.99,SW,225,8.0,11.0,83,0.21,,,0.22,Wunderground v.1.15,2013-02-19 08:24:00,
2013-02-19 03:25:00,44.4,39.6,29.99,SW,215,13.0,13.0,83,0.54,,,0.23,Wunderground v.1.15,2013-02-19 08:25:00,
2013-02-19 03:26:00,44.3,39.5,29.98,SSW,192,7.0,15.0,83,0.41,,,0.23,Wunderground v.1.15,2013-02-19 08:26:00,
2013-02-19 03:28:00,44.3,39.5,29.98,SSW,207,9.0,15.0,83,0.68,,,0.25,Wunderground v.1.15,2013-02-19 08:28:00,
2013-02-19 03:29:00,44.3,39.2,29.97,SW,222,5.0,15.0,82,0.62,,,0.26,Wunderground v.1.15,2013-02-19 08:29:00,
2013-02-19 03:30:00,44.3,39.8,29.98,SW,223,4.0,7.0,84,0.36,,,0.27,Wunderground v.1.15,2013-02-19 08:30:00,
2013-02-19 03:31:00,44.2,39.7,29.99,SW,231,6.0,9.0,84,0.36,,,0.27,Wunderground v.1.15,2013-02-19 08:31:00,
2013-02-19 03:33:00,44.0,39.2,30.00,WSW,247,10.0,17.0,83,0.25,,,0.28,Wunderground v.1.15,2013-02-19 08:33:00,
2013-02-19 03:34:00,44.0,39.5,30.00,SW,236,4.0,17.0,84,0.25,,,0.28,Wunderground v.1.15,2013-02-19 08:34:00,
2013-02-19 03:35:00,44.0,39.5,30.00,SW,219,6.0,17.0,84,0.30,,,0.29,Wunderground v.1.15,2013-02-19 08:35:00,
2013-02-19 03:36:00,43.8,39.6,30.00,SW,232,4.0,17.0,85,0.30,,,0.29,Wunderground v.1.15,2013-02-19 08:36:00,
2013-02-19 03:38:00,43.8,39.6,30.00,WSW,238,9.0,17.0,85,0.15,,,0.29,Wunderground v.1.15,2013-02-19 08:38:00,
2013-02-19 03:39:00,43.8,39.3,30.00,SW,234,7.0,17.0,84,0.13,,,0.29,Wunderground v.1.15,2013-02-19 08:39:00,
2013-02-19 03:40:00,44.0,39.2,29.99,SW,222,12.0,12.0,83,0.10,,,0.29,Wunderground v.1.15,2013-02-19 08:40:00,
2013-02-19 03:42:00,44.0,39.8,30.00,SW,223,3.0,12.0,85,0.08,,,0.29,Wunderground v.1.15,2013-02-19 08:42:00,
2013-02-19 03:43:00,44.0,39.8,30.00,West,259,5.0,12.0,85,0.07,,,0.29,Wunderground v.1.15,2013-02-19 08:43:00,
2013-02-19 03:44:00,43.9,39.7,30.00,SW,214,6.0,14.0,85,0.06,,,0.29,Wunderground v.1.15,2013-02-19 08:44:00,
2013-02-19 03:45:00,43.8,39.6,30.00,SSW,201,4.0,14.0,85,0.05,,,0.29,Wunderground v.1.15,2013-02-19 08:45:00,
2013-02-19 03:47:00,43.6,39.4,30.00,SSW,207,2.0,14.0,85,0.05,,,0.30,Wunderground v.1.15,2013-02-19 08:47:00,
2013-02-19 03:48:00,43.5,39.6,30.00,SSW,207,2.0,14.0,86,0.05,,,0.30,Wunderground v.1.15,2013-02-19 08:48:00,
2013-02-19 03:49:00,43.4,39.8,30.00,SSW,207,1.0,14.0,87,0.30,,,0.31,Wunderground v.1.15,2013-02-19 08:49:00,
2013-02-19 03:51:00,43.3,39.7,30.00,SSW,207,4.0,4.0,87,0.29,,,0.31,Wunderground v.1.15,2013-02-19 08:51:00,
2013-02-19 03:52:00,43.1,39.5,30.00,SSW,209,4.0,4.0,87,0.18,,,0.31,Wunderground v.1.15,2013-02-19 08:52:00,
2013-02-19 03:54:00,42.8,39.5,30.01,SSW,210,3.0,4.0,88,0.17,,,0.32,Wunderground v.1.15,2013-02-19 08:54:00,
2013-02-19 03:55:00,42.7,39.4,30.01,SSW,211,3.0,4.0,88,0.17,,,0.32,Wunderground v.1.15,2013-02-19 08:55:00,
2013-02-19 03:56:00,42.5,39.2,30.00,SSW,211,0.0,4.0,88,0.23,,,0.33,Wunderground v.1.15,2013-02-19 08:56:00,
2013-02-19 03:57:00,42.4,39.4,30.01,SSW,213,2.0,4.0,89,0.23,,,0.33,Wunderground v.1.15,2013-02-19 08:57:00,
2013-02-19 03:59:00,42.2,39.2,30.01,SW,217,5.0,12.0,89,0.14,,,0.33,Wunderground v.1.15,2013-02-19 08:59:00,
2013-02-19 04:00:00,42.1,39.1,30.01,SW,218,6.0,6.0,89,0.11,,,0.33,Wunderground v.1.15,2013-02-19 09:00:00,
2013-02-19 04:01:00,42.0,39.0,30.01,SW,221,3.0,6.0,89,0.09,,,0.33,Wunderground v.1.15,2013-02-19 09:01:00,
2013-02-19 04:03:00,41.9,39.2,30.01,SW,227,6.0,8.0,90,0.08,,,0.33,Wunderground v.1.15,2013-02-19 09:03:00,
2013-02-19 04:04:00,41.8,39.1,30.01,SW,228,3.0,8.0,90,0.07,,,0.34,Wunderground v.1.15,2013-02-19 09:04:00,
2013-02-19 04:05:00,41.8,39.1,30.01,SW,230,7.0,8.0,90,0.07,,,0.34,Wunderground v.1.15,2013-02-19 09:05:00,
2013-02-19 04:07:00,41.8,39.4,30.01,WSW,253,10.0,10.0,91,0.07,,,0.34,Wunderground v.1.15,2013-02-19 09:07:00,
2013-02-19 04:08:00,41.8,39.1,30.00,SW,227,8.0,11.0,90,0.07,,,0.34,Wunderground v.1.15,2013-02-19 09:08:00,
2013-02-19 04:09:00,41.9,39.2,30.00,SW,227,14.0,14.0,90,0.12,,,0.35,Wunderground v.1.15,2013-02-19 09:09:00,
2013-02-19 04:10:00,41.9,39.2,29.99,SW,222,5.0,17.0,90,0.12,,,0.35,Wunderground v.1.15,2013-02-19 09:10:00,
2013-02-19 04:12:00,42.0,39.3,30.00,SW,221,7.0,17.0,90,0.12,,,0.35,Wunderground v.1.15,2013-02-19 09:12:00,
2013-02-19 04:13:00,42.1,39.4,29.99,West,261,4.0,17.0,90,0.12,,,0.35,Wunderground v.1.15,2013-02-19 09:13:00,
2013-02-19 04:15:00,42.2,39.2,29.99,SW,216,10.0,17.0,89,0.09,,,0.35,Wunderground v.1.15,2013-02-19 09:15:00,
2013-02-19 04:16:00,42.3,39.0,29.99,SSE,147,9.0,28.0,88,0.09,,,0.36,Wunderground v.1.15,2013-02-19 09:16:00,
2013-02-19 04:17:00,42.4,39.1,29.99,South,191,6.0,28.0,88,0.69,,,0.37,Wunderground v.1.15,2013-02-19 09:17:00,
2013-02-19 04:18:00,42.5,39.2,29.99,SSW,198,6.0,28.0,88,0.81,,,0.38,Wunderground v.1.15,2013-02-19 09:18:00,
2013-02-19 04:20:00,42.5,39.2,29.98,SSW,193,13.0,13.0,88,0.32,,,0.40,Wunderground v.1.15,2013-02-19 09:20:00,
2013-02-19 04:21:00,42.4,39.1,29.98,SW,227,16.0,16.0,88,0.32,,,0.40,Wunderground v.1.15,2013-02-19 09:21:00,
2013-02-19 04:22:00,42.4,38.8,29.97,SSW,208,13.0,16.0,87,0.33,,,0.41,Wunderground v.1.15,2013-02-19 09:22:00,
2013-02-19 04:23:00,42.5,38.9,29.98,WSW,246,17.0,19.0,87,0.33,,,0.41,Wunderground v.1.15,2013-02-19 09:23:00,
2013-02-19 04:25:00,42.5,38.9,29.97,WSW,239,12.0,21.0,87,0.16,,,0.41,Wunderground v.1.15,2013-02-19 09:25:00,
2013-02-19 04:26:00,42.5,38.9,29.97,SSE,157,14.0,21.0,87,0.14,,,0.41,Wunderground v.1.15,2013-02-19 09:26:00,
2013-02-19 04:27:00,42.4,38.8,29.97,South,191,10.0,21.0,87,0.14,,,0.42,Wunderground v.1.15,2013-02-19 09:27:00,
2013-02-19 04:28:00,42.4,38.8,29.97,SW,233,10.0,21.0,87,0.14,,,0.42,Wunderground v.1.15,2013-02-19 09:28:00,
2013-02-19 04:31:00,42.3,38.7,29.97,SW,229,13.0,17.0,87,0.13,,,0.43,Wunderground v.1.15,2013-02-19 09:31:00,
2013-02-19 04:33:00,42.3,38.7,29.96,SE,140,13.0,17.0,87,0.13,,,0.43,Wunderground v.1.15,2013-02-19 09:33:00,
2013-02-19 04:36:00,42.2,38.6,29.94,SW,217,9.0,20.0,87,0.10,,,0.43,Wunderground v.1.15,2013-02-19 09:36:00,
2013-02-19 04:37:00,42.2,38.6,29.94,SSW,198,5.0,20.0,87,0.10,,,0.43,Wunderground v.1.15,2013-02-19 09:37:00,
2013-02-19 04:38:00,42.1,38.5,29.94,South,182,13.0,26.0,87,0.08,,,0.43,Wunderground v.1.15,2013-02-19 09:38:00,
2013-02-19 04:39:00,42.2,38.6,29.93,SSE,147,16.0,26.0,87,0.07,,,0.43,Wunderground v.1.15,2013-02-19 09:39:00,
2013-02-19 04:41:00,42.2,38.6,29.93,South,183,16.0,24.0,87,0.06,,,0.43,Wunderground v.1.15,2013-02-19 09:41:00,
2013-02-19 04:42:00,42.2,38.6,29.93,SSW,203,14.0,24.0,87,0.05,,,0.43,Wunderground v.1.15,2013-02-19 09:42:00,
2013-02-19 04:43:00,42.3,38.7,29.92,SE,127,6.0,24.0,87,0.05,,,0.43,Wunderground v.1.15,2013-02-19 09:43:00,
2013-02-19 04:44:00,42.3,38.7,29.92,SSW,202,6.0,24.0,87,0.04,,,0.43,Wunderground v.1.15,2013-02-19 09:44:00,
2013-02-19 04:47:00,42.3,38.4,29.93,SSE,165,22.0,24.0,86,0.04,,,0.43,Wunderground v.1.15,2013-02-19 09:47:00,
2013-02-19 04:48:00,42.4,38.2,29.93,SW,230,6.0,24.0,85,0.00,,,0.43,Wunderground v.1.15,2013-02-19 09:48:00,
2013-02-19 04:49:00,42.4,38.2,29.93,SSE,153,17.0,17.0,85,0.00,,,0.43,Wunderground v.1.15,2013-02-19 09:49:00,
2013-02-19 04:52:00,42.4,38.2,29.91,SSW,213,15.0,21.0,85,0.00,,,0.43,Wunderground v.1.15,2013-02-19 09:52:00,
2013-02-19 04:53:00,42.4,38.2,29.93,SE,145,9.0,21.0,85,0.00,,,0.43,Wunderground v.1.15,2013-02-19 09:53:00,
2013-02-19 04:55:00,42.4,38.2,29.92,SSW,205,9.0,21.0,85,0.00,,,0.43,Wunderground v.1.15,2013-02-19 09:55:00,
2013-02-19 04:57:00,42.4,38.2,29.91,SSW,196,6.0,21.0,85,0.00,,,0.43,Wunderground v.1.15,2013-02-19 09:57:00,
2013-02-19 04:58:00,42.6,38.4,29.91,WSW,239,9.0,21.0,85,0.00,,,0.43,Wunderground v.1.15,2013-02-19 09:58:00,
2013-02-19 05:01:00,42.9,38.4,29.91,SW,214,13.0,17.0,84,0.00,,,0.43,Wunderground v.1.15,2013-02-19 10:01:00,
2013-02-19 05:02:00,42.9,38.4,29.91,ENE,72,2.0,17.0,84,0.00,,,0.43,Wunderground v.1.15,2013-02-19 10:02:00,
2013-02-19 05:04:00,42.8,38.3,29.92,SSW,192,4.0,17.0,84,0.00,,,0.43,Wunderground v.1.15,2013-02-19 10:04:00,
2013-02-19 05:07:00,42.9,38.4,29.93,SSW,211,4.0,17.0,84,0.00,,,0.43,Wunderground v.1.15,2013-02-19 10:07:00,
2013-02-19 05:08:00,42.9,38.4,29.92,SW,226,13.0,17.0,84,0.00,,,0.43,Wunderground v.1.15,2013-02-19 10:08:00,
2013-02-19 05:09:00,43.0,38.5,29.91,SSE,162,14.0,17.0,84,0.00,,,0.43,Wunderground v.1.15,2013-02-19 10:09:00,
2013-02-19 05:12:00,43.1,38.3,29.92,South,179,19.0,19.0,83,0.00,,,0.43,Wunderground v.1.15,2013-02-19 10:12:00,
2013-02-19 05:13:00,43.0,38.5,29.92,SSW,194,5.0,19.0,84,0.00,,,0.43,Wunderground v.1.15,2013-02-19 10:13:00,
2013-02-19 05:15:00,43.2,38.7,29.92,SW,218,11.0,19.0,84,0.00,,,0.43,Wunderground v.1.15,2013-02-19 10:15:00,
2013-02-19 05:17:00,43.6,38.8,29.92,SW,215,11.0,19.0,83,0.00,,,0.43,Wunderground v.1.15,2013-02-19 10:17:00,
2013-02-19 05:18:00,43.8,39.0,29.93,South,174,7.0,19.0,83,0.00,,,0.43,Wunderground v.1.15,2013-02-19 10:18:00,
2013-02-19 05:20:00,44.0,38.9,29.92,SSE,149,11.0,13.0,82,0.00,,,0.43,Wunderground v.1.15,2013-02-19 10:20:00,
2013-02-19 05:22:00,44.0,38.5,29.92,WSW,240,12.0,13.0,81,0.00,,,0.43,Wunderground v.1.15,2013-02-19 10:22:00,
2013-02-19 05:23:00,44.0,38.5,29.92,SW,229,2.0,15.0,81,0.00,,,0.43,Wunderground v.1.15,2013-02-19 10:23:00,
2013-02-19 05:25:00,44.0,38.5,29.92,SW,219,5.0,15.0,81,0.00,,,0.43,Wunderground v.1.15,2013-02-19 10:25:00,
2013-02-19 05:27:00,43.9,38.4,29.92,SSE,164,3.0,15.0,81,0.00,,,0.43,Wunderground v.1.15,2013-02-19 10:27:00,
2013-02-19 05:28:00,44.0,38.5,29.92,South,189,7.0,15.0,81,0.00,,,0.43,Wunderground v.1.15,2013-02-19 10:28:00,
2013-02-19 05:30:00,43.9,38.8,29.91,SSE,148,8.0,10.0,82,0.00,,,0.43,Wunderground v.1.15,2013-02-19 10:30:00,
2013-02-19 05:33:00,44.1,39.0,29.91,SW,218,4.0,15.0,82,0.00,,,0.43,Wunderground v.1.15,2013-02-19 10:33:00,
2013-02-19 05:35:00,44.1,39.0,29.92,SSE,167,5.0,15.0,82,0.00,,,0.43,Wunderground v.1.15,2013-02-19 10:35:00,
2013-02-19 05:38:00,44.0,38.9,29.92,SW,221,4.0,16.0,82,0.00,,,0.43,Wunderground v.1.15,2013-02-19 10:38:00,
2013-02-19 05:39:00,44.0,38.9,29.92,SW,221,5.0,16.0,82,0.00,,,0.43,Wunderground v.1.15,2013-02-19 10:39:00,
2013-02-19 05:41:00,43.9,38.8,29.91,SSE,161,0.0,7.0,82,0.00,,,0.43,Wunderground v.1.15,2013-02-19 10:41:00,
2013-02-19 05:43:00,43.8,38.7,29.91,SSE,152,5.0,13.0,82,0.00,,,0.43,Wunderground v.1.15,2013-02-19 10:43:00,
2013-02-19 05:44:00,43.7,38.6,29.91,SSE,153,2.0,13.0,82,0.00,,,0.43,Wunderground v.1.15,2013-02-19 10:44:00,
2013-02-19 05:46:00,43.6,38.8,29.92,South,173,5.0,13.0,83,0.00,,,0.43,Wunderground v.1.15,2013-02-19 10:46:00,
2013-02-19 05:48:00,43.4,38.6,29.92,South,180,5.0,13.0,83,0.00,,,0.43,Wunderground v.1.15,2013-02-19 10:48:00,
2013-02-19 05:49:00,43.3,38.5,29.92,SSW,196,4.0,13.0,83,0.00,,,0.43,Wunderground v.1.15,2013-02-19 10:49:00,
2013-02-19 05:51:00,43.2,38.4,29.91,SSW,199,5.0,5.0,83,0.00,,,0.43,Wunderground v.1.15,2013-02-19 10:51:00,
2013-02-19 05:53:00,43.2,38.7,29.91,SE,134,2.0,5.0,84,0.00,,,0.43,Wunderground v.1.15,2013-02-19 10:53:00,
2013-02-19 05:54:00,43.2,38.7,29.91,SE,135,2.0,5.0,84,0.00,,,0.43,Wunderground v.1.15,2013-02-19 10:54:00,
2013-02-19 05:56:00,43.3,39.1,29.91,SW,219,13.0,21.0,85,0.00,,,0.43,Wunderground v.1.15,2013-02-19 10:56:00,
2013-02-19 05:58:00,43.7,39.2,29.91,South,171,7.0,21.0,84,0.00,,,0.43,Wunderground v.1.15,2013-02-19 10:58:00,
2013-02-19 05:59:00,43.7,38.9,29.91,South,171,2.0,21.0,83,0.00,,,0.43,Wunderground v.1.15,2013-02-19 10:59:00,
2013-02-19 06:00:00,43.7,38.9,29.91,WSW,252,6.0,6.0,83,0.00,,,0.43,Wunderground v.1.15,2013-02-19 11:00:00,
2013-02-19 06:01:00,43.7,38.9,29.91,South,180,2.0,6.0,83,0.00,,,0.43,Wunderground v.1.15,2013-02-19 11:01:00,
2013-02-19 06:04:00,43.6,39.4,29.91,SSW,197,2.0,8.0,85,0.00,,,0.43,Wunderground v.1.15,2013-02-19 11:04:00,
2013-02-19 06:05:00,43.6,39.4,29.91,SSW,203,5.0,10.0,85,0.00,,,0.43,Wunderground v.1.15,2013-02-19 11:05:00,
2013-02-19 06:06:00,43.6,39.4,29.91,WSW,244,11.0,11.0,85,0.00,,,0.43,Wunderground v.1.15,2013-02-19 11:06:00,
2013-02-19 06:09:00,43.6,39.1,29.91,SW,221,4.0,12.0,84,0.00,,,0.43,Wunderground v.1.15,2013-02-19 11:09:00,
2013-02-19 06:10:00,43.6,39.1,29.91,SW,221,2.0,5.0,84,0.00,,,0.43,Wunderground v.1.15,2013-02-19 11:10:00,
2013-02-19 06:12:00,43.5,39.3,29.91,WSW,241,5.0,7.0,85,0.00,,,0.43,Wunderground v.1.15,2013-02-19 11:12:00,
2013-02-19 06:14:00,43.5,39.0,29.91,SSE,168,2.0,8.0,84,0.00,,,0.43,Wunderground v.1.15,2013-02-19 11:14:00,
2013-02-19 06:15:00,43.4,38.9,29.91,SSE,168,3.0,8.0,84,0.00,,,0.43,Wunderground v.1.15,2013-02-19 11:15:00,
2013-02-19 06:16:00,43.4,38.9,29.91,SSE,168,3.0,8.0,84,0.00,,,0.43,Wunderground v.1.15,2013-02-19 11:16:00,
2013-02-19 06:17:00,43.4,39.2,29.91,South,178,4.0,8.0,85,0.00,,,0.43,Wunderground v.1.15,2013-02-19 11:17:00,
2013-02-19 06:19:00,43.5,39.3,29.91,SE,141,4.0,9.0,85,0.00,,,0.43,Wunderground v.1.15,2013-02-19 11:19:00,
2013-02-19 06:20:00,43.5,39.3,29.91,SE,140,6.0,7.0,85,0.00,,,0.43,Wunderground v.1.15,2013-02-19 11:20:00,
2013-02-19 06:21:00,43.4,39.2,29.91,SSW,211,8.0,13.0,85,0.00,,,0.43,Wunderground v.1.15,2013-02-19 11:21:00,
2013-02-19 06:22:00,43.3,39.1,29.91,SW,225,4.0,13.0,85,0.00,,,0.43,Wunderground v.1.15,2013-02-19 11:22:00,
2013-02-19 06:25:00,43.2,39.0,29.91,SSW,213,1.0,13.0,85,0.00,,,0.43,Wunderground v.1.15,2013-02-19 11:25:00,
2013-02-19 06:27:00,43.1,38.9,29.91,WSW,238,5.0,13.0,85,0.00,,,0.43,Wunderground v.1.15,2013-02-19 11:27:00,
2013-02-19 06:28:00,43.0,38.8,29.91,ENE,59,4.0,13.0,85,0.00,,,0.43,Wunderground v.1.15,2013-02-19 11:28:00,
2013-02-19 06:30:00,42.9,38.7,29.92,South,172,12.0,12.0,85,0.00,,,0.43,Wunderground v.1.15,2013-02-19 11:30:00,
2013-02-19 06:32:00,42.8,38.6,29.92,South,191,4.0,15.0,85,0.00,,,0.43,Wunderground v.1.15,2013-02-19 11:32:00,
2013-02-19 06:33:00,42.8,38.6,29.92,South,188,3.0,15.0,85,0.00,,,0.43,Wunderground v.1.15,2013-02-19 11:33:00,
2013-02-19 06:35:00,42.7,38.5,29.91,WSW,248,5.0,15.0,85,0.00,,,0.43,Wunderground v.1.15,2013-02-19 11:35:00,
2013-02-19 06:37:00,42.7,38.5,29.91,SSW,205,7.0,15.0,85,0.00,,,0.43,Wunderground v.1.15,2013-02-19 11:37:00,
2013-02-19 06:38:00,42.7,38.5,29.91,SSW,205,3.0,15.0,85,0.00,,,0.43,Wunderground v.1.15,2013-02-19 11:38:00,
2013-02-19 06:40:00,42.6,38.4,29.91,SW,221,3.0,5.0,85,0.00,,,0.43,Wunderground v.1.15,2013-02-19 11:40:00,
2013-02-19 06:43:00,42.5,38.3,29.91,WSW,248,3.0,8.0,85,0.00,,,0.43,Wunderground v.1.15,2013-02-19 11:43:00,
2013-02-19 06:45:00,42.5,38.3,29.91,South,169,1.0,10.0,85,0.00,,,0.43,Wunderground v.1.15,2013-02-19 11:45:00,
2013-02-19 06:46:00,42.5,38.3,29.91,South,169,2.0,10.0,85,0.00,,,0.43,Wunderground v.1.15,2013-02-19 11:46:00,
2013-02-19 06:48:00,42.5,38.3,29.91,South,169,2.0,10.0,85,0.00,,,0.43,Wunderground v.1.15,2013-02-19 11:48:00,
2013-02-19 06:49:00,42.5,38.6,29.92,South,169,2.0,10.0,86,0.00,,,0.43,Wunderground v.1.15,2013-02-19 11:49:00,
2013-02-19 06:50:00,42.5,38.3,29.91,South,171,0.0,4.0,85,0.00,,,0.43,Wunderground v.1.15,2013-02-19 11:50:00,
2013-02-19 06:52:00,42.5,38.3,29.91,WSW,241,4.0,5.0,85,0.00,,,0.43,Wunderground v.1.15,2013-02-19 11:52:00,
2013-02-19 06:53:00,42.5,38.3,29.91,SW,229,3.0,5.0,85,0.00,,,0.43,Wunderground v.1.15,2013-02-19 11:53:00,
2013-02-19 06:55:00,42.5,38.3,29.91,SW,229,3.0,5.0,85,0.00,,,0.43,Wunderground v.1.15,2013-02-19 11:55:00,
2013-02-19 06:56:00,42.5,38.3,29.91,SW,234,4.0,5.0,85,0.00,,,0.43,Wunderground v.1.15,2013-02-19 11:56:00,
2013-02-19 06:57:00,42.5,38.3,29.91,WSW,252,3.0,5.0,85,0.00,,,0.43,Wunderground v.1.15,2013-02-19 11:57:00,
2013-02-19 06:58:00,42.5,38.3,29.91,WSW,252,0.0,5.0,85,0.00,,,0.43,Wunderground v.1.15,2013-02-19 11:58:00,
2013-02-19 07:00:00,42.5,38.3,29.91,South,184,6.0,10.0,85,0.00,,,0.43,Wunderground v.1.15,2013-02-19 12:00:00,
2013-02-19 07:01:00,42.6,38.4,29.91,South,187,3.0,10.0,85,0.00,,,0.43,Wunderground v.1.15,2013-02-19 12:01:00,
2013-02-19 07:03:00,42.6,38.4,29.91,SW,214,3.0,11.0,85,0.00,,,0.43,Wunderground v.1.15,2013-02-19 12:03:00,
2013-02-19 07:04:00,42.6,38.4,29.91,SW,214,3.0,11.0,85,0.00,,,0.43,Wunderground v.1.15,2013-02-19 12:04:00,
2013-02-19 07:05:00,42.7,38.5,29.91,SW,214,2.0,11.0,85,0.00,,,0.43,Wunderground v.1.15,2013-02-19 12:05:00,
2013-02-19 07:07:00,42.8,38.6,29.91,South,191,1.0,11.0,85,0.00,,,0.43,Wunderground v.1.15,2013-02-19 12:07:00,
2013-02-19 07:08:00,42.8,38.6,29.91,SSW,192,3.0,11.0,85,0.00,,,0.43,Wunderground v.1.15,2013-02-19 12:08:00,
2013-02-19 07:09:00,42.8,38.6,29.92,SSE,165,2.0,4.0,85,0.00,,,0.43,Wunderground v.1.15,2013-02-19 12:09:00,
2013-02-19 07:10:00,42.8,38.6,29.92,SSE,164,2.0,4.0,85,0.00,,,0.43,Wunderground v.1.15,2013-02-19 12:10:00,
2013-02-19 07:12:00,42.9,38.7,29.92,WNW,295,5.0,7.0,85,0.00,,,0.43,Wunderground v.1.15,2013-02-19 12:12:00,
2013-02-19 07:13:00,42.9,38.7,29.92,WNW,295,2.0,7.0,85,0.00,,,0.43,Wunderground v.1.15,2013-02-19 12:13:00,
2013-02-19 07:15:00,43.0,39.1,29.93,WNW,295,0.0,7.0,86,0.00,,,0.43,Wunderground v.1.15,2013-02-19 12:15:00,
2013-02-19 07:16:00,43.0,39.1,29.93,WNW,294,0.0,7.0,86,0.00,,,0.43,Wunderground v.1.15,2013-02-19 12:16:00,
2013-02-19 07:17:00,43.0,39.1,29.93,WNW,295,0.0,7.0,86,0.00,,,0.44,Wunderground v.1.15,2013-02-19 12:17:00,
2013-02-19 07:18:00,43.1,39.2,29.93,WNW,295,1.0,7.0,86,0.00,,,0.44,Wunderground v.1.15,2013-02-19 12:18:00,
2013-02-19 07:21:00,43.0,39.1,29.94,WNW,294,3.0,5.0,86,0.23,,,0.45,Wunderground v.1.15,2013-02-19 12:21:00,
2013-02-19 07:23:00,43.0,39.4,29.94,WNW,294,2.0,5.0,87,0.13,,,0.45,Wunderground v.1.15,2013-02-19 12:23:00,
2013-02-19 07:26:00,42.9,39.3,29.94,SW,230,4.0,5.0,87,0.09,,,0.46,Wunderground v.1.15,2013-02-19 12:26:00,
2013-02-19 07:29:00,42.8,39.5,29.94,SW,224,0.0,3.0,88,0.25,,,0.47,Wunderground v.1.15,2013-02-19 12:29:00,
2013-02-19 07:30:00,42.8,39.5,29.94,SW,224,0.0,3.0,88,0.25,,,0.47,Wunderground v.1.15,2013-02-19 12:30:00,
2013-02-19 07:31:00,42.8,39.5,29.95,SW,224,0.0,3.0,88,0.19,,,0.47,Wunderground v.1.15,2013-02-19 12:31:00,
2013-02-19 07:32:00,42.8,39.8,29.95,SW,224,0.0,3.0,89,0.16,,,0.47,Wunderground v.1.15,2013-02-19 12:32:00,
2013-02-19 07:35:00,42.8,39.8,29.95,SW,224,1.0,3.0,89,0.11,,,0.48,Wunderground v.1.15,2013-02-19 12:35:00,
2013-02-19 07:36:00,42.7,39.7,29.95,SW,224,0.0,3.0,89,0.11,,,0.48,Wunderground v.1.15,2013-02-19 12:36:00,
2013-02-19 07:37:00,42.7,39.7,29.95,SW,223,0.0,3.0,89,0.11,,,0.48,Wunderground v.1.15,2013-02-19 12:37:00,
2013-02-19 07:40:00,42.7,39.7,29.95,SW,224,0.0,0.0,89,0.16,,,0.49,Wunderground v.1.15,2013-02-19 12:40:00,
2013-02-19 07:41:00,42.6,39.6,29.95,SW,223,0.0,0.0,89,0.16,,,0.49,Wunderground v.1.15,2013-02-19 12:41:00,
2013-02-19 07:42:00,42.6,39.9,29.95,SW,224,0.0,1.0,90,0.14,,,0.50,Wunderground v.1.15,2013-02-19 12:42:00,
2013-02-19 07:45:00,42.5,39.8,29.95,SW,224,0.0,1.0,90,0.18,,,0.51,Wunderground v.1.15,2013-02-19 12:45:00,
2013-02-19 07:46:00,42.5,39.8,29.95,SW,223,1.0,2.0,90,0.18,,,0.51,Wunderground v.1.15,2013-02-19 12:46:00,
2013-02-19 07:48:00,42.4,39.7,29.95,SW,223,1.0,5.0,90,0.18,,,0.51,Wunderground v.1.15,2013-02-19 12:48:00,
2013-02-19 07:50:00,42.3,39.6,29.95,SSW,194,0.0,3.0,90,0.12,,,0.52,Wunderground v.1.15,2013-02-19 12:50:00,
2013-02-19 07:51:00,42.2,39.5,29.95,SSW,194,0.0,3.0,90,0.12,,,0.52,Wunderground v.1.15,2013-02-19 12:51:00,
2013-02-19 07:53:00,42.2,39.5,29.95,SSW,194,0.0,3.0,90,0.24,,,0.53,Wunderground v.1.15,2013-02-19 12:53:00,
2013-02-19 07:55:00,42.1,39.7,29.95,SSW,194,0.0,3.0,91,0.20,,,0.53,Wunderground v.1.15,2013-02-19 12:55:00,
2013-02-19 07:56:00,42.0,39.6,29.96,SSW,194,2.0,3.0,91,0.16,,,0.53,Wunderground v.1.15,2013-02-19 12:56:00,
2013-02-19 07:57:00,42.0,39.6,29.96,SSW,194,0.0,3.0,91,0.13,,,0.53,Wunderground v.1.15,2013-02-19 12:57:00,
2013-02-19 07:58:00,41.9,39.5,29.95,SSW,194,2.0,3.0,91,0.10,,,0.53,Wunderground v.1.15,2013-02-19 12:58:00,
2013-02-19 08:01:00,41.8,39.4,29.95,SSW,194,2.0,5.0,91,0.07,,,0.53,Wunderground v.1.15,2013-02-19 13:01:00,
2013-02-19 08:02:00,41.7,39.3,29.95,SSW,194,1.0,5.0,91,0.06,,,0.53,Wunderground v.1.15,2013-02-19 13:02:00,
2013-02-19 08:03:00,41.6,39.2,29.95,SSW,194,2.0,5.0,91,0.05,,,0.53,Wunderground v.1.15,2013-02-19 13:03:00,
2013-02-19 08:06:00,41.5,39.1,29.96,SSW,194,1.0,5.0,91,0.04,,,0.53,Wunderground v.1.15,2013-02-19 13:06:00,
2013-02-19 08:07:00,41.5,39.1,29.96,SSW,194,2.0,5.0,91,0.04,,,0.53,Wunderground v.1.15,2013-02-19 13:07:00,
2013-02-19 08:08:00,41.4,39.0,29.95,SSW,210,2.0,5.0,91,0.04,,,0.53,Wunderground v.1.15,2013-02-19 13:08:00,
2013-02-19 08:11:00,41.4,39.0,29.95,SSW,209,2.0,3.0,91,0.00,,,0.53,Wunderground v.1.15,2013-02-19 13:11:00,
2013-02-19 08:12:00,41.4,39.0,29.95,SSW,209,1.0,3.0,91,0.00,,,0.53,Wunderground v.1.15,2013-02-19 13:12:00,
2013-02-19 08:13:00,41.3,38.9,29.96,SSW,209,1.0,3.0,91,0.00,,,0.53,Wunderground v.1.15,2013-02-19 13:13:00,
2013-02-19 08:16:00,41.3,39.2,29.96,SSW,209,0.0,3.0,92,0.00,,,0.53,Wunderground v.1.15,2013-02-19 13:16:00,
2013-02-19 08:17:00,41.3,39.2,29.96,SSW,209,0.0,3.0,92,0.00,,,0.53,Wunderground v.1.15,2013-02-19 13:17:00,
2013-02-19 08:18:00,41.3,39.2,29.96,SSW,209,0.0,3.0,92,0.00,,,0.53,Wunderground v.1.15,2013-02-19 13:18:00,
2013-02-19 08:19:00,41.3,39.2,29.96,SSW,209,0.0,3.0,92,0.00,,,0.54,Wunderground v.1.15,2013-02-19 13:19:00,
2013-02-19 08:21:00,41.3,39.2,29.96,SSW,209,1.0,2.0,92,0.00,,,0.54,Wunderground v.1.15,2013-02-19 13:21:00,
2013-02-19 08:22:00,41.3,39.2,29.96,SSW,209,0.0,2.0,92,0.00,,,0.54,Wunderground v.1.15,2013-02-19 13:22:00,
2013-02-19 08:23:00,41.3,39.2,29.96,SSW,209,0.0,2.0,92,0.00,,,0.54,Wunderground v.1.15,2013-02-19 13:23:00,
2013-02-19 08:25:00,41.3,39.2,29.96,SSW,209,0.0,2.0,92,0.14,,,0.55,Wunderground v.1.15,2013-02-19 13:25:00,
2013-02-19 08:26:00,41.4,39.5,29.96,SSW,209,0.0,2.0,93,0.14,,,0.55,Wunderground v.1.15,2013-02-19 13:26:00,
2013-02-19 08:28:00,41.4,39.5,29.96,SSW,209,0.0,2.0,93,0.14,,,0.55,Wunderground v.1.15,2013-02-19 13:28:00,
2013-02-19 08:30:00,41.4,39.5,29.96,SSW,209,1.0,1.0,93,0.09,,,0.55,Wunderground v.1.15,2013-02-19 13:30:00,
2013-02-19 08:32:00,41.4,39.5,29.96,SSW,209,0.0,2.0,93,0.07,,,0.55,Wunderground v.1.15,2013-02-19 13:32:00,
2013-02-19 08:33:00,41.4,39.5,29.96,SSW,209,2.0,2.0,93,0.06,,,0.55,Wunderground v.1.15,2013-02-19 13:33:00,
2013-02-19 08:36:00,41.5,39.6,29.97,SSW,209,0.0,3.0,93,0.05,,,0.55,Wunderground v.1.15,2013-02-19 13:36:00,
2013-02-19 08:37:00,41.5,39.6,29.97,SSW,209,0.0,3.0,93,0.04,,,0.55,Wunderground v.1.15,2013-02-19 13:37:00,
2013-02-19 08:38:00,41.5,39.6,29.97,SSW,209,0.0,3.0,93,0.04,,,0.55,Wunderground v.1.15,2013-02-19 13:38:00,
2013-02-19 08:41:00,41.6,40.0,29.97,SSW,209,2.0,4.0,94,0.00,,,0.55,Wunderground v.1.15,2013-02-19 13:41:00,
2013-02-19 08:42:00,41.7,40.1,29.97,SSW,209,2.0,4.0,94,0.00,,,0.55,Wunderground v.1.15,2013-02-19 13:42:00,
2013-02-19 08:43:00,41.7,40.1,29.97,SSW,209,0.0,4.0,94,0.00,,,0.55,Wunderground v.1.15,2013-02-19 13:43:00,
2013-02-19 08:44:00,41.7,40.1,29.97,SSW,209,1.0,4.0,94,0.00,,,0.56,Wunderground v.1.15,2013-02-19 13:44:00,
2013-02-19 08:46:00,41.8,40.2,29.97,SSW,209,1.0,4.0,94,0.00,,,0.56,Wunderground v.1.15,2013-02-19 13:46:00,
2013-02-19 08:48:00,41.8,40.2,29.97,SSW,209,1.0,4.0,94,0.00,,,0.56,Wunderground v.1.15,2013-02-19 13:48:00,
2013-02-19 08:50:00,41.8,40.2,29.97,SSW,209,1.0,1.0,94,0.00,,,0.56,Wunderground v.1.15,2013-02-19 13:50:00,
2013-02-19 08:52:00,41.8,40.2,29.97,SSW,209,0.0,1.0,94,0.00,,,0.56,Wunderground v.1.15,2013-02-19 13:52:00,
2013-02-19 08:53:00,41.8,40.2,29.98,SSW,209,1.0,1.0,94,0.00,,,0.56,Wunderground v.1.15,2013-02-19 13:53:00,
2013-02-19 08:54:00,41.9,40.3,29.98,SSW,209,1.0,1.0,94,0.00,,,0.56,Wunderground v.1.15,2013-02-19 13:54:00,
2013-02-19 08:55:00,41.9,40.3,29.98,SSW,209,0.0,1.0,94,0.00,,,0.56,Wunderground v.1.15,2013-02-19 13:55:00,
2013-02-19 08:57:00,41.9,40.3,29.98,SSW,209,1.0,2.0,94,0.00,,,0.56,Wunderground v.1.15,2013-02-19 13:57:00,
2013-02-19 08:59:00,41.9,40.3,29.98,SSW,209,0.0,2.0,94,0.00,,,0.56,Wunderground v.1.15,2013-02-19 13:59:00,
2013-02-19 09:00:00,41.9,40.3,29.98,SSW,209,2.0,4.0,94,0.00,,,0.56,Wunderground v.1.15,2013-02-19 14:00:00,
2013-02-19 09:02:00,41.9,40.3,29.98,SSW,211,2.0,4.0,94,0.00,,,0.56,Wunderground v.1.15,2013-02-19 14:02:00,
2013-02-19 09:04:00,42.0,40.4,29.98,SSW,211,0.0,4.0,94,0.00,,,0.56,Wunderground v.1.15,2013-02-19 14:04:00,
2013-02-19 09:05:00,42.0,40.4,29.98,SW,214,2.0,4.0,94,0.00,,,0.56,Wunderground v.1.15,2013-02-19 14:05:00,
2013-02-19 09:08:00,42.0,40.4,29.98,SW,215,3.0,4.0,94,0.00,,,0.56,Wunderground v.1.15,2013-02-19 14:08:00,
2013-02-19 09:09:00,42.0,40.4,29.98,SW,218,2.0,5.0,94,0.00,,,0.56,Wunderground v.1.15,2013-02-19 14:09:00,
2013-02-19 09:10:00,42.1,40.8,29.99,SW,218,2.0,2.0,95,0.00,,,0.56,Wunderground v.1.15,2013-02-19 14:10:00,
2013-02-19 09:13:00,42.1,40.5,29.98,SW,219,1.0,3.0,94,0.00,,,0.56,Wunderground v.1.15,2013-02-19 14:13:00,
2013-02-19 09:14:00,42.2,40.6,29.99,SW,224,2.0,3.0,94,0.00,,,0.56,Wunderground v.1.15,2013-02-19 14:14:00,
2013-02-19 09:15:00,42.2,40.6,29.99,SW,223,3.0,3.0,94,0.00,,,0.56,Wunderground v.1.15,2013-02-19 14:15:00,
2013-02-19 09:18:00,42.2,40.6,29.98,SW,227,3.0,5.0,94,0.00,,,0.56,Wunderground v.1.15,2013-02-19 14:18:00,
2013-02-19 09:19:00,42.2,40.6,29.99,SW,227,1.0,5.0,94,0.00,,,0.56,Wunderground v.1.15,2013-02-19 14:19:00,
2013-02-19 09:20:00,42.2,40.9,29.99,SW,227,0.0,2.0,95,0.00,,,0.56,Wunderground v.1.15,2013-02-19 14:20:00,
2013-02-19 09:23:00,42.3,41.0,29.98,SW,227,2.0,4.0,95,0.00,,,0.56,Wunderground v.1.15,2013-02-19 14:23:00,
2013-02-19 09:24:00,42.3,41.0,29.99,SW,227,1.0,4.0,95,0.00,,,0.56,Wunderground v.1.15,2013-02-19 14:24:00,
2013-02-19 09:25:00,42.3,41.0,29.99,WSW,237,2.0,4.0,95,0.00,,,0.56,Wunderground v.1.15,2013-02-19 14:25:00,
2013-02-19 09:28:00,42.3,41.0,29.99,WSW,238,2.0,4.0,95,0.00,,,0.56,Wunderground v.1.15,2013-02-19 14:28:00,
2013-02-19 09:29:00,42.3,41.0,29.99,WSW,256,0.0,4.0,95,0.00,,,0.56,Wunderground v.1.15,2013-02-19 14:29:00,
2013-02-19 09:30:00,42.3,41.0,29.99,WSW,257,2.0,2.0,95,0.00,,,0.56,Wunderground v.1.15,2013-02-19 14:30:00,
2013-02-19 09:31:00,42.4,41.1,29.99,WSW,257,1.0,3.0,95,0.00,,,0.56,Wunderground v.1.15,2013-02-19 14:31:00,
2013-02-19 09:33:00,42.4,41.1,29.99,WSW,256,1.0,3.0,95,0.00,,,0.56,Wunderground v.1.15,2013-02-19 14:33:00,
2013-02-19 09:34:00,42.4,41.1,29.99,WSW,253,5.0,5.0,95,0.00,,,0.56,Wunderground v.1.15,2013-02-19 14:34:00,
2013-02-19 09:35:00,42.3,41.0,29.98,SW,229,4.0,9.0,95,0.00,,,0.56,Wunderground v.1.15,2013-02-19 14:35:00,
2013-02-19 09:36:00,42.3,41.0,29.98,SW,229,5.0,9.0,95,0.00,,,0.56,Wunderground v.1.15,2013-02-19 14:36:00,
2013-02-19 09:38:00,42.2,40.9,29.99,WSW,237,2.0,9.0,95,0.00,,,0.56,Wunderground v.1.15,2013-02-19 14:38:00,
2013-02-19 09:40:00,42.2,40.9,29.99,West,270,2.0,3.0,95,0.00,,,0.56,Wunderground v.1.15,2013-02-19 14:40:00,
2013-02-19 09:41:00,42.3,41.0,29.99,West,270,2.0,3.0,95,0.00,,,0.56,Wunderground v.1.15,2013-02-19 14:41:00,
2013-02-19 09:43:00,42.3,41.0,29.99,SW,227,2.0,8.0,95,0.00,,,0.56,Wunderground v.1.15,2013-02-19 14:43:00,
2013-02-19 09:46:00,42.3,41.0,29.99,SW,226,0.0,8.0,95,0.00,,,0.56,Wunderground v.1.15,2013-02-19 14:46:00,
2013-02-19 09:48:00,42.4,41.1,29.99,SW,228,2.0,8.0,95,0.00,,,0.56,Wunderground v.1.15,2013-02-19 14:48:00,
2013-02-19 09:51:00,42.5,41.2,29.99,West,278,5.0,5.0,95,0.00,,,0.56,Wunderground v.1.15,2013-02-19 14:51:00,
2013-02-19 09:53:00,42.5,41.2,29.99,West,272,4.0,6.0,95,0.00,,,0.56,Wunderground v.1.15,2013-02-19 14:53:00,
2013-02-19 09:56:00,42.7,41.4,29.99,West,271,3.0,10.0,95,0.00,,,0.56,Wunderground v.1.15,2013-02-19 14:56:00,
2013-02-19 09:58:00,42.6,41.3,29.99,West,275,4.0,10.0,95,0.00,,,0.56,Wunderground v.1.15,2013-02-19 14:58:00,
2013-02-19 10:01:00,42.6,41.3,29.99,West,268,3.0,6.0,95,0.00,,,0.56,Wunderground v.1.15,2013-02-19 15:01:00,
2013-02-19 10:02:00,42.6,41.3,29.99,West,268,5.0,6.0,95,0.00,,,0.56,Wunderground v.1.15,2013-02-19 15:02:00,
2013-02-19 10:04:00,42.6,41.3,29.99,West,263,5.0,8.0,95,0.00,,,0.56,Wunderground v.1.15,2013-02-19 15:04:00,
2013-02-19 10:06:00,42.7,41.4,29.99,WSW,256,3.0,8.0,95,0.00,,,0.56,Wunderground v.1.15,2013-02-19 15:06:00,
2013-02-19 10:07:00,42.7,41.4,29.99,WSW,256,4.0,8.0,95,0.00,,,0.56,Wunderground v.1.15,2013-02-19 15:07:00,
2013-02-19 10:09:00,42.7,41.4,29.99,WSW,256,2.0,8.0,95,0.00,,,0.56,Wunderground v.1.15,2013-02-19 15:09:00,
2013-02-19 10:12:00,42.9,41.6,29.99,West,263,6.0,7.0,95,0.00,,,0.56,Wunderground v.1.15,2013-02-19 15:12:00,
2013-02-19 10:14:00,43.1,41.8,29.99,West,263,3.0,7.0,95,0.00,,,0.56,Wunderground v.1.15,2013-02-19 15:14:00,
2013-02-19 10:17:00,43.5,42.2,29.99,West,271,3.0,7.0,95,0.00,,,0.56,Wunderground v.1.15,2013-02-19 15:17:00,
2013-02-19 10:19:00,43.7,42.6,29.99,WNW,288,2.0,10.0,96,0.00,,,0.56,Wunderground v.1.15,2013-02-19 15:19:00,
2013-02-19 10:22:00,43.9,42.6,29.99,WSW,257,4.0,6.0,95,0.00,,,0.56,Wunderground v.1.15,2013-02-19 15:22:00,
2013-02-19 10:23:00,43.9,42.6,29.99,WSW,258,2.0,6.0,95,0.00,,,0.56,Wunderground v.1.15,2013-02-19 15:23:00,
2013-02-19 10:24:00,43.9,42.6,29.99,WNW,297,6.0,7.0,95,0.00,,,0.56,Wunderground v.1.15,2013-02-19 15:24:00,
2013-02-19 10:27:00,44.3,43.2,29.99,West,268,4.0,7.0,96,0.00,,,0.56,Wunderground v.1.15,2013-02-19 15:27:00,
2013-02-19 10:28:00,44.3,43.2,29.99,SW,221,4.0,8.0,96,0.00,,,0.56,Wunderground v.1.15,2013-02-19 15:28:00,
2013-02-19 10:30:00,44.6,43.5,29.99,SW,223,2.0,4.0,96,0.00,,,0.56,Wunderground v.1.15,2013-02-19 15:30:00,
2013-02-19 10:32:00,45.0,43.9,29.99,SW,233,4.0,6.0,96,0.00,,,0.56,Wunderground v.1.15,2013-02-19 15:32:00,
2013-02-19 10:33:00,45.0,43.9,29.99,SW,233,7.0,7.0,96,0.00,,,0.56,Wunderground v.1.15,2013-02-19 15:33:00,
2013-02-19 10:35:00,45.0,43.7,29.99,SW,221,3.0,9.0,95,0.00,,,0.56,Wunderground v.1.15,2013-02-19 15:35:00,
2013-02-19 10:37:00,45.0,43.7,29.99,WSW,256,2.0,9.0,95,0.00,,,0.56,Wunderground v.1.15,2013-02-19 15:37:00,
2013-02-19 10:38:00,45.0,43.7,29.99,WSW,257,1.0,9.0,95,0.00,,,0.56,Wunderground v.1.15,2013-02-19 15:38:00,
2013-02-19 10:40:00,45.0,43.7,29.99,SW,227,5.0,6.0,95,0.00,,,0.56,Wunderground v.1.15,2013-02-19 15:40:00,
2013-02-19 10:43:00,45.0,43.4,29.99,SW,229,3.0,6.0,94,0.00,,,0.56,Wunderground v.1.15,2013-02-19 15:43:00,
2013-02-19 10:45:00,45.0,43.4,29.99,West,261,3.0,6.0,94,0.00,,,0.56,Wunderground v.1.15,2013-02-19 15:45:00,
2013-02-19 10:48:00,45.0,43.4,29.99,WNW,288,3.0,6.0,94,0.00,,,0.56,Wunderground v.1.15,2013-02-19 15:48:00,
2013-02-19 10:50:00,44.9,43.3,29.99,West,280,4.0,6.0,94,0.00,,,0.56,Wunderground v.1.15,2013-02-19 15:50:00,
2013-02-19 10:53:00,44.8,43.2,29.99,West,280,2.0,6.0,94,0.00,,,0.56,Wunderground v.1.15,2013-02-19 15:53:00,
2013-02-19 10:54:00,44.8,43.2,29.99,West,280,3.0,6.0,94,0.00,,,0.56,Wunderground v.1.15,2013-02-19 15:54:00,
2013-02-19 10:56:00,44.8,43.2,29.99,West,280,2.0,6.0,94,0.00,,,0.56,Wunderground v.1.15,2013-02-19 15:56:00,
2013-02-19 10:58:00,44.8,43.2,29.99,West,280,2.0,6.0,94,0.00,,,0.56,Wunderground v.1.15,2013-02-19 15:58:00,
2013-02-19 10:59:00,44.8,43.2,29.99,West,280,2.0,6.0,94,0.00,,,0.56,Wunderground v.1.15,2013-02-19 15:59:00,
2013-02-19 11:01:00,44.8,43.2,29.99,WSW,254,3.0,9.0,94,0.00,,,0.56,Wunderground v.1.15,2013-02-19 16:01:00,
2013-02-19 11:03:00,44.8,42.9,29.99,WNW,292,8.0,10.0,93,0.00,,,0.56,Wunderground v.1.15,2013-02-19 16:03:00,
2013-02-19 11:04:00,44.8,42.9,29.99,WNW,293,4.0,10.0,93,0.00,,,0.56,Wunderground v.1.15,2013-02-19 16:04:00,
2013-02-19 11:07:00,44.9,43.0,29.99,WNW,290,2.0,10.0,93,0.00,,,0.56,Wunderground v.1.15,2013-02-19 16:07:00,
2013-02-19 11:08:00,45.0,43.1,29.99,WNW,282,6.0,10.0,93,0.00,,,0.56,Wunderground v.1.15,2013-02-19 16:08:00,
2013-02-19 11:09:00,45.0,43.1,29.99,West,281,2.0,10.0,93,0.00,,,0.56,Wunderground v.1.15,2013-02-19 16:09:00,
2013-02-19 11:11:00,45.0,43.1,29.99,West,262,4.0,6.0,93,0.00,,,0.56,Wunderground v.1.15,2013-02-19 16:11:00,
2013-02-19 11:13:00,45.0,43.1,29.99,WSW,245,1.0,6.0,93,0.00,,,0.56,Wunderground v.1.15,2013-02-19 16:13:00,
2013-02-19 11:14:00,45.0,43.1,29.99,WSW,246,3.0,6.0,93,0.00,,,0.56,Wunderground v.1.15,2013-02-19 16:14:00,
2013-02-19 11:17:00,45.2,43.3,29.99,West,265,4.0,6.0,93,0.00,,,0.56,Wunderground v.1.15,2013-02-19 16:17:00,
2013-02-19 11:19:00,45.3,43.4,29.99,West,280,5.0,6.0,93,0.00,,,0.56,Wunderground v.1.15,2013-02-19 16:19:00,
2013-02-19 11:22:00,45.3,43.4,29.99,West,275,2.0,6.0,93,0.00,,,0.56,Wunderground v.1.15,2013-02-19 16:22:00,
2013-02-19 11:24:00,45.4,43.5,29.99,West,280,4.0,7.0,93,0.00,,,0.56,Wunderground v.1.15,2013-02-19 16:24:00,
2013-02-19 11:25:00,45.4,43.5,29.99,West,275,3.0,7.0,93,0.00,,,0.56,Wunderground v.1.15,2013-02-19 16:25:00,
2013-02-19 11:27:00,45.4,43.5,29.99,West,278,3.0,7.0,93,0.00,,,0.56,Wunderground v.1.15,2013-02-19 16:27:00,
2013-02-19 11:29:00,45.5,43.6,29.99,West,278,4.0,7.0,93,0.00,,,0.56,Wunderground v.1.15,2013-02-19 16:29:00,
2013-02-19 11:30:00,45.5,43.6,30.00,West,275,5.0,5.0,93,0.00,,,0.56,Wunderground v.1.15,2013-02-19 16:30:00,
2013-02-19 11:32:00,45.7,43.5,30.00,West,268,4.0,9.0,92,0.00,,,0.56,Wunderground v.1.15,2013-02-19 16:32:00,
2013-02-19 11:34:00,45.7,43.5,30.00,West,268,1.0,9.0,92,0.00,,,0.56,Wunderground v.1.15,2013-02-19 16:34:00,
2013-02-19 11:35:00,45.8,43.6,30.00,West,268,5.0,9.0,92,0.00,,,0.56,Wunderground v.1.15,2013-02-19 16:35:00,
2013-02-19 11:38:00,46.1,43.9,30.00,WSW,249,4.0,9.0,92,0.00,,,0.56,Wunderground v.1.15,2013-02-19 16:38:00,
2013-02-19 11:39:00,46.2,44.0,30.00,West,261,5.0,9.0,92,0.00,,,0.56,Wunderground v.1.15,2013-02-19 16:39:00,
2013-02-19 11:40:00,46.3,43.8,30.00,West,260,6.0,7.0,91,0.00,,,0.56,Wunderground v.1.15,2013-02-19 16:40:00,
2013-02-19 11:41:00,46.3,43.8,30.00,West,260,2.0,7.0,91,0.00,,,0.56,Wunderground v.1.15,2013-02-19 16:41:00,
2013-02-19 11:43:00,46.4,43.9,30.00,WSW,249,6.0,9.0,91,0.00,,,0.56,Wunderground v.1.15,2013-02-19 16:43:00,
2013-02-19 11:44:00,46.5,44.0,30.00,WSW,249,4.0,9.0,91,0.00,,,0.56,Wunderground v.1.15,2013-02-19 16:44:00,
2013-02-19 11:45:00,46.5,44.0,30.00,SW,232,6.0,9.0,91,0.00,,,0.56,Wunderground v.1.15,2013-02-19 16:45:00,
2013-02-19 11:46:00,46.6,44.1,30.00,WSW,248,3.0,9.0,91,0.00,,,0.56,Wunderground v.1.15,2013-02-19 16:46:00,
2013-02-19 11:49:00,46.7,43.9,30.00,SW,236,2.0,12.0,90,0.00,,,0.56,Wunderground v.1.15,2013-02-19 16:49:00,
2013-02-19 11:51:00,46.7,43.9,30.00,West,266,4.0,5.0,90,0.00,,,0.56,Wunderground v.1.15,2013-02-19 16:51:00,
2013-02-19 11:54:00,47.0,44.5,30.00,West,268,4.0,6.0,91,0.00,,,0.56,Wunderground v.1.15,2013-02-19 16:54:00,
2013-02-19 11:56:00,47.2,44.4,30.00,WSW,253,7.0,9.0,90,0.00,,,0.56,Wunderground v.1.15,2013-02-19 16:56:00,
2013-02-19 11:57:00,47.2,44.4,30.00,WSW,242,2.0,9.0,90,0.00,,,0.56,Wunderground v.1.15,2013-02-19 16:57:00,
2013-02-19 11:59:00,47.3,44.2,30.00,West,267,4.0,9.0,89,0.00,,,0.56,Wunderground v.1.15,2013-02-19 16:59:00,
2013-02-19 12:01:00,47.3,44.2,30.00,West,267,5.0,5.0,89,0.00,,,0.56,Wunderground v.1.15,2013-02-19 17:01:00,
2013-02-19 12:02:00,47.3,43.9,30.00,WNW,293,4.0,6.0,88,0.00,,,0.56,Wunderground v.1.15,2013-02-19 17:02:00,
2013-02-19 12:05:00,47.3,43.9,29.99,West,280,3.0,7.0,88,0.00,,,0.56,Wunderground v.1.15,2013-02-19 17:05:00,
2013-02-19 12:06:00,47.4,44.0,30.00,West,279,3.0,7.0,88,0.00,,,0.56,Wunderground v.1.15,2013-02-19 17:06:00,
2013-02-19 12:07:00,47.4,44.0,30.00,West,279,2.0,7.0,88,0.00,,,0.56,Wunderground v.1.15,2013-02-19 17:07:00,
2013-02-19 12:10:00,47.5,43.8,30.00,NW,311,3.0,4.0,87,0.00,,,0.56,Wunderground v.1.15,2013-02-19 17:10:00,
2013-02-19 12:11:00,47.6,44.2,29.99,NW,313,1.0,4.0,88,0.00,,,0.56,Wunderground v.1.15,2013-02-19 17:11:00,
2013-02-19 12:12:00,47.6,43.9,29.99,NW,313,4.0,4.0,87,0.00,,,0.56,Wunderground v.1.15,2013-02-19 17:12:00,
2013-02-19 12:15:00,47.7,44.0,29.99,WNW,303,5.0,6.0,87,0.00,,,0.56,Wunderground v.1.15,2013-02-19 17:15:00,
2013-02-19 12:17:00,47.8,44.4,29.99,WNW,303,1.0,6.0,88,0.00,,,0.56,Wunderground v.1.15,2013-02-19 17:17:00,
2013-02-19 12:20:00,47.9,44.2,29.99,WNW,303,4.0,4.0,87,0.00,,,0.56,Wunderground v.1.15,2013-02-19 17:20:00,
2013-02-19 12:22:00,47.9,43.9,29.99,WNW,303,1.0,5.0,86,0.00,,,0.56,Wunderground v.1.15,2013-02-19 17:22:00,
2013-02-19 12:23:00,47.9,43.9,29.99,WNW,302,3.0,5.0,86,0.00,,,0.56,Wunderground v.1.15,2013-02-19 17:23:00,
2013-02-19 12:25:00,47.9,44.2,29.99,WNW,303,2.0,5.0,87,0.00,,,0.56,Wunderground v.1.15,2013-02-19 17:25:00,
2013-02-19 12:28:00,48.3,44.9,29.99,WNW,302,2.0,5.0,88,0.00,,,0.56,Wunderground v.1.15,2013-02-19 17:28:00,
2013-02-19 12:30:00,48.5,43.9,29.99,West,269,3.0,6.0,84,0.00,,,0.56,Wunderground v.1.15,2013-02-19 17:30:00,
2013-02-19 12:31:00,48.4,43.8,29.99,West,269,1.0,6.0,84,0.00,,,0.56,Wunderground v.1.15,2013-02-19 17:31:00,
2013-02-19 12:33:00,48.5,44.2,29.99,WNW,286,6.0,9.0,85,0.00,,,0.56,Wunderground v.1.15,2013-02-19 17:33:00,
2013-02-19 12:35:00,48.5,43.3,29.98,West,272,2.0,9.0,82,0.00,,,0.56,Wunderground v.1.15,2013-02-19 17:35:00,
2013-02-19 12:36:00,48.5,43.3,29.98,West,272,2.0,9.0,82,0.00,,,0.56,Wunderground v.1.15,2013-02-19 17:36:00,
2013-02-19 12:38:00,48.5,43.3,29.98,WNW,295,3.0,9.0,82,0.00,,,0.56,Wunderground v.1.15,2013-02-19 17:38:00,
2013-02-19 12:40:00,48.5,43.6,29.99,WNW,294,3.0,4.0,83,0.00,,,0.56,Wunderground v.1.15,2013-02-19 17:40:00,
2013-02-19 12:41:00,48.6,43.7,29.99,WNW,287,5.0,5.0,83,0.00,,,0.56,Wunderground v.1.15,2013-02-19 17:41:00,
2013-02-19 12:43:00,48.8,42.9,29.99,West,275,8.0,8.0,80,0.00,,,0.56,Wunderground v.1.15,2013-02-19 17:43:00,
2013-02-19 12:46:00,48.9,43.0,29.98,West,265,3.0,8.0,80,0.00,,,0.56,Wunderground v.1.15,2013-02-19 17:46:00,
2013-02-19 12:48:00,48.8,42.6,29.98,SW,220,7.0,8.0,79,0.00,,,0.56,Wunderground v.1.15,2013-02-19 17:48:00,
2013-02-19 12:51:00,48.8,42.9,29.98,SW,220,1.0,4.0,80,0.00,,,0.56,Wunderground v.1.15,2013-02-19 17:51:00,
2013-02-19 12:52:00,48.8,42.9,29.98,SW,222,3.0,4.0,80,0.00,,,0.56,Wunderground v.1.15,2013-02-19 17:52:00,
2013-02-19 12:53:00,48.8,42.2,29.98,WSW,253,4.0,5.0,78,0.00,,,0.56,Wunderground v.1.15,2013-02-19 17:53:00,
2013-02-19 12:54:00,48.9,42.7,29.98,WNW,295,4.0,5.0,79,0.00,,,0.56,Wunderground v.1.15,2013-02-19 17:54:00,
2013-02-19 12:56:00,49.1,43.2,29.98,SW,232,7.0,9.0,80,0.00,,,0.56,Wunderground v.1.15,2013-02-19 17:56:00,
2013-02-19 12:57:00,49.2,42.6,29.98,SW,219,6.0,9.0,78,0.00,,,0.56,Wunderground v.1.15,2013-02-19 17:57:00,
2013-02-19 12:58:00,49.4,43.2,29.98,SW,221,3.0,9.0,79,0.00,,,0.56,Wunderground v.1.15,2013-02-19 17:58:00,
2013-02-19 12:59:00,49.6,43.7,29.98,West,277,4.0,9.0,80,0.00,,,0.56,Wunderground v.1.15,2013-02-19 17:59:00,
2013-02-19 13:01:00,50.0,43.7,29.98,WSW,242,3.0,6.0,79,0.00,,,0.56,Wunderground v.1.15,2013-02-19 18:01:00,
2013-02-19 13:02:00,50.2,43.9,29.98,WSW,241,4.0,6.0,79,0.00,,,0.56,Wunderground v.1.15,2013-02-19 18:02:00,
2013-02-19 13:03:00,50.4,42.8,29.98,WSW,246,6.0,11.0,75,0.00,,,0.56,Wunderground v.1.15,2013-02-19 18:03:00,
2013-02-19 13:04:00,50.4,42.4,29.98,SW,225,8.0,12.0,74,0.00,,,0.56,Wunderground v.1.15,2013-02-19 18:04:00,
2013-02-19 13:07:00,50.3,43.0,29.97,SSW,201,11.0,14.0,76,0.00,,,0.56,Wunderground v.1.15,2013-02-19 18:07:00,
2013-02-19 13:08:00,50.3,42.7,29.97,SW,223,9.0,14.0,75,0.00,,,0.56,Wunderground v.1.15,2013-02-19 18:08:00,
2013-02-19 13:09:00,50.4,42.8,29.97,SW,215,6.0,14.0,75,0.00,,,0.56,Wunderground v.1.15,2013-02-19 18:09:00,
2013-02-19 13:12:00,50.1,42.1,29.97,WSW,245,3.0,12.0,74,0.00,,,0.56,Wunderground v.1.15,2013-02-19 18:12:00,
2013-02-19 13:13:00,50.0,42.0,29.97,WSW,246,3.0,12.0,74,0.00,,,0.56,Wunderground v.1.15,2013-02-19 18:13:00,
2013-02-19 13:14:00,49.9,41.6,29.97,WSW,246,2.0,12.0,73,0.00,,,0.56,Wunderground v.1.15,2013-02-19 18:14:00,
2013-02-19 13:18:00,49.9,42.6,29.97,West,271,1.0,12.0,76,0.00,,,0.56,Wunderground v.1.15,2013-02-19 18:18:00,
2013-02-19 13:19:00,49.8,41.8,29.97,West,276,2.0,12.0,74,0.00,,,0.56,Wunderground v.1.15,2013-02-19 18:19:00,
2013-02-19 13:20:00,49.8,41.8,29.97,West,277,3.0,4.0,74,0.00,,,0.56,Wunderground v.1.15,2013-02-19 18:20:00,
2013-02-19 13:23:00,49.8,41.8,29.97,WNW,300,6.0,7.0,74,0.00,,,0.56,Wunderground v.1.15,2013-02-19 18:23:00,
2013-02-19 13:24:00,49.7,41.7,29.97,WNW,302,2.0,7.0,74,0.00,,,0.56,Wunderground v.1.15,2013-02-19 18:24:00,
2013-02-19 13:25:00,49.7,42.1,29.97,WNW,302,3.0,7.0,75,0.00,,,0.56,Wunderground v.1.15,2013-02-19 18:25:00,
2013-02-19 13:28:00,49.7,42.1,29.97,WNW,302,3.0,7.0,75,0.00,,,0.56,Wunderground v.1.15,2013-02-19 18:28:00,
2013-02-19 13:29:00,49.7,42.8,29.97,West,270,6.0,7.0,77,0.00,,,0.56,Wunderground v.1.15,2013-02-19 18:29:00,
2013-02-19 13:30:00,49.8,42.2,29.97,NW,307,3.0,4.0,75,0.00,,,0.56,Wunderground v.1.15,2013-02-19 18:30:00,
2013-02-19 13:33:00,49.7,41.7,29.97,WNW,292,2.0,7.0,74,0.00,,,0.56,Wunderground v.1.15,2013-02-19 18:33:00,
2013-02-19 13:34:00,49.7,42.1,29.97,WNW,292,1.0,7.0,75,0.00,,,0.56,Wunderground v.1.15,2013-02-19 18:34:00,
2013-02-19 13:35:00,49.7,41.7,29.97,WNW,284,1.0,7.0,74,0.00,,,0.56,Wunderground v.1.15,2013-02-19 18:35:00,
2013-02-19 13:38:00,49.6,42.0,29.97,West,271,5.0,7.0,75,0.00,,,0.56,Wunderground v.1.15,2013-02-19 18:38:00,
2013-02-19 13:39:00,49.6,42.0,29.97,WNW,284,3.0,7.0,75,0.00,,,0.56,Wunderground v.1.15,2013-02-19 18:39:00,
2013-02-19 13:40:00,49.6,40.9,29.97,West,271,7.0,7.0,72,0.00,,,0.56,Wunderground v.1.15,2013-02-19 18:40:00,
2013-02-19 13:43:00,49.9,39.8,29.97,NW,312,6.0,10.0,68,0.00,,,0.56,Wunderground v.1.15,2013-02-19 18:43:00,
2013-02-19 13:44:00,49.9,39.8,29.97,NW,319,6.0,10.0,68,0.00,,,0.56,Wunderground v.1.15,2013-02-19 18:44:00,
2013-02-19 13:45:00,50.3,38.6,29.97,West,277,4.0,11.0,64,0.00,,,0.56,Wunderground v.1.15,2013-02-19 18:45:00,
2013-02-19 13:49:00,51.3,38.7,29.97,WSW,257,6.0,11.0,62,0.00,,,0.56,Wunderground v.1.15,2013-02-19 18:49:00,
2013-02-19 13:50:00,51.9,38.9,29.97,WNW,290,4.0,6.0,61,0.00,,,0.56,Wunderground v.1.15,2013-02-19 18:50:00,
2013-02-19 13:54:00,52.7,37.0,29.97,WNW,286,6.0,14.0,55,0.00,,,0.56,Wunderground v.1.15,2013-02-19 18:54:00,
2013-02-19 13:55:00,52.9,34.8,29.96,WNW,284,5.0,14.0,50,0.00,,,0.56,Wunderground v.1.15,2013-02-19 18:55:00,
2013-02-19 13:56:00,52.9,34.8,29.96,West,268,4.0,14.0,50,0.00,,,0.56,Wunderground v.1.15,2013-02-19 18:56:00,
2013-02-19 13:59:00,53.3,36.1,29.96,WNW,286,7.0,14.0,52,0.00,,,0.56,Wunderground v.1.15,2013-02-19 18:59:00,
2013-02-19 14:01:00,53.3,33.0,29.96,West,269,13.0,14.0,46,0.00,,,0.56,Wunderground v.1.15,2013-02-19 19:01:00,
2013-02-19 14:04:00,53.2,34.5,29.96,WNW,282,11.0,14.0,49,0.00,,,0.56,Wunderground v.1.15,2013-02-19 19:04:00,
2013-02-19 14:06:00,53.5,35.8,29.96,WSW,253,6.0,14.0,51,0.00,,,0.56,Wunderground v.1.15,2013-02-19 19:06:00,
2013-02-19 14:07:00,53.6,35.4,29.96,WNW,287,7.0,14.0,50,0.00,,,0.56,Wunderground v.1.15,2013-02-19 19:07:00,
2013-02-19 14:09:00,53.9,32.5,29.96,West,269,11.0,14.0,44,0.00,,,0.56,Wunderground v.1.15,2013-02-19 19:09:00,
2013-02-19 14:11:00,53.8,34.0,29.96,West,265,4.0,14.0,47,0.00,,,0.56,Wunderground v.1.15,2013-02-19 19:11:00,
2013-02-19 14:12:00,53.7,32.3,29.96,WNW,302,16.0,16.0,44,0.00,,,0.56,Wunderground v.1.15,2013-02-19 19:12:00,
2013-02-19 14:14:00,53.8,32.9,29.96,SW,234,7.0,16.0,45,0.00,,,0.56,Wunderground v.1.15,2013-02-19 19:14:00,
2013-02-19 14:15:00,53.9,33.0,29.96,West,275,8.0,16.0,45,0.00,,,0.56,Wunderground v.1.15,2013-02-19 19:15:00,
2013-02-19 14:17:00,53.8,32.4,29.95,West,261,8.0,16.0,44,0.00,,,0.56,Wunderground v.1.15,2013-02-19 19:17:00,
2013-02-19 14:20:00,53.8,32.9,29.96,WNW,296,11.0,11.0,45,0.00,,,0.57,Wunderground v.1.15,2013-02-19 19:20:00,
2013-02-19 14:22:00,53.6,34.9,29.96,SW,214,10.0,14.0,49,0.00,,,0.57,Wunderground v.1.15,2013-02-19 19:22:00,
2013-02-19 14:25:00,53.5,32.7,29.96,WNW,290,7.0,14.0,45,0.00,,,0.57,Wunderground v.1.15,2013-02-19 19:25:00,
2013-02-19 14:27:00,53.5,32.7,29.96,WNW,296,3.0,14.0,45,0.00,,,0.57,Wunderground v.1.15,2013-02-19 19:27:00,
2013-02-19 14:28:00,53.5,32.7,29.96,WNW,292,4.0,14.0,45,0.00,,,0.57,Wunderground v.1.15,2013-02-19 19:28:00,
2013-02-19 14:30:00,53.8,34.0,29.96,West,271,4.0,7.0,47,0.00,,,0.57,Wunderground v.1.15,2013-02-19 19:30:00,
2013-02-19 14:32:00,53.8,34.6,29.97,WSW,254,6.0,13.0,48,0.00,,,0.57,Wunderground v.1.15,2013-02-19 19:32:00,
2013-02-19 14:33:00,53.8,34.6,29.96,West,267,7.0,13.0,48,0.00,,,0.57,Wunderground v.1.15,2013-02-19 19:33:00,
2013-02-19 14:35:00,53.5,32.1,29.96,NW,311,7.0,13.0,44,0.00,,,0.57,Wunderground v.1.15,2013-02-19 19:35:00,
2013-02-19 14:36:00,53.5,34.3,29.96,West,277,4.0,13.0,48,0.00,,,0.57,Wunderground v.1.15,2013-02-19 19:36:00,
2013-02-19 14:37:00,53.3,33.6,29.96,West,272,2.0,13.0,47,0.00,,,0.57,Wunderground v.1.15,2013-02-19 19:37:00,
2013-02-19 14:38:00,53.3,34.1,29.96,NNW,334,5.0,13.0,48,0.00,,,0.57,Wunderground v.1.15,2013-02-19 19:38:00,
2013-02-19 14:40:00,53.4,34.2,29.96,WSW,253,6.0,7.0,48,0.00,,,0.57,Wunderground v.1.15,2013-02-19 19:40:00,
2013-02-19 14:41:00,53.4,33.1,29.96,West,276,5.0,7.0,46,0.00,,,0.57,Wunderground v.1.15,2013-02-19 19:41:00,
2013-02-19 14:42:00,53.4,33.7,29.96,West,279,5.0,14.0,47,0.00,,,0.57,Wunderground v.1.15,2013-02-19 19:42:00,
2013-02-19 14:43:00,53.5,31.5,29.96,West,278,5.0,14.0,43,0.00,,,0.57,Wunderground v.1.15,2013-02-19 19:43:00,
2013-02-19 14:46:00,53.6,31.0,29.96,WSW,252,4.0,14.0,42,0.00,,,0.57,Wunderground v.1.15,2013-02-19 19:46:00,
2013-02-19 14:47:00,53.8,32.9,29.97,West,269,4.0,14.0,45,0.00,,,0.57,Wunderground v.1.15,2013-02-19 19:47:00,
2013-02-19 14:48:00,54.0,32.6,29.96,West,263,4.0,14.0,44,0.00,,,0.57,Wunderground v.1.15,2013-02-19 19:48:00,
2013-02-19 14:51:00,54.2,31.6,29.96,WNW,285,7.0,11.0,42,0.00,,,0.57,Wunderground v.1.15,2013-02-19 19:51:00,
2013-02-19 14:52:00,54.2,33.9,29.96,WSW,241,3.0,11.0,46,0.00,,,0.57,Wunderground v.1.15,2013-02-19 19:52:00,
2013-02-19 14:54:00,54.3,32.3,29.96,WNW,285,3.0,11.0,43,0.00,,,0.57,Wunderground v.1.15,2013-02-19 19:54:00,
2013-02-19 14:56:00,54.6,33.7,29.96,WSW,256,2.0,11.0,45,0.00,,,0.57,Wunderground v.1.15,2013-02-19 19:56:00,
2013-02-19 14:57:00,54.7,32.6,29.96,WNW,295,11.0,11.0,43,0.00,,,0.57,Wunderground v.1.15,2013-02-19 19:57:00,
2013-02-19 14:58:00,54.8,31.5,29.96,West,280,4.0,11.0,41,0.00,,,0.57,Wunderground v.1.15,2013-02-19 19:58:00,
2013-02-19 14:59:00,55.0,32.9,29.96,West,279,11.0,12.0,43,0.00,,,0.57,Wunderground v.1.15,2013-02-19 19:59:00,
2013-02-19 15:01:00,54.9,29.1,29.96,NW,308,5.0,14.0,37,0.00,,,0.57,Wunderground v.1.15,2013-02-19 20:01:00,
2013-02-19 15:02:00,54.9,30.4,29.96,NW,315,8.0,14.0,39,0.00,,,0.57,Wunderground v.1.15,2013-02-19 20:02:00,
2013-02-19 15:03:00,55.0,29.8,29.96,West,280,15.0,15.0,38,0.00,,,0.57,Wunderground v.1.15,2013-02-19 20:03:00,
2013-02-19 15:05:00,54.9,29.7,29.96,WNW,284,5.0,15.0,38,0.00,,,0.57,Wunderground v.1.15,2013-02-19 20:05:00,
2013-02-19 15:06:00,54.8,29.7,29.97,WSW,251,7.0,15.0,38,0.00,,,0.57,Wunderground v.1.15,2013-02-19 20:06:00,
2013-02-19 15:07:00,54.8,29.7,29.96,West,277,5.0,15.0,38,0.00,,,0.57,Wunderground v.1.15,2013-02-19 20:07:00,
2013-02-19 15:08:00,54.8,29.0,29.96,West,279,9.0,15.0,37,0.00,,,0.57,Wunderground v.1.15,2013-02-19 20:08:00,
2013-02-19 15:10:00,54.8,30.3,29.97,NW,308,4.0,13.0,39,0.00,,,0.57,Wunderground v.1.15,2013-02-19 20:10:00,
2013-02-19 15:11:00,54.9,31.0,29.97,WNW,299,4.0,13.0,40,0.00,,,0.57,Wunderground v.1.15,2013-02-19 20:11:00,
2013-02-19 15:12:00,55.0,31.7,29.96,WNW,303,5.0,13.0,41,0.00,,,0.57,Wunderground v.1.15,2013-02-19 20:12:00,
2013-02-19 15:13:00,55.2,31.3,29.97,NW,324,5.0,13.0,40,0.00,,,0.57,Wunderground v.1.15,2013-02-19 20:13:00,
2013-02-19 15:15:00,55.4,30.8,29.97,NW,307,2.0,13.0,39,0.00,,,0.57,Wunderground v.1.15,2013-02-19 20:15:00,
2013-02-19 15:16:00,55.6,31.0,29.97,NW,306,2.0,13.0,39,0.00,,,0.57,Wunderground v.1.15,2013-02-19 20:16:00,
2013-02-19 15:18:00,55.7,31.7,29.97,WNW,298,7.0,13.0,40,0.00,,,0.57,Wunderground v.1.15,2013-02-19 20:18:00,
2013-02-19 15:21:00,55.7,29.8,29.97,West,269,8.0,11.0,37,0.00,,,0.57,Wunderground v.1.15,2013-02-19 20:21:00,
2013-02-19 15:23:00,55.6,29.7,29.97,WNW,294,3.0,11.0,37,0.00,,,0.57,Wunderground v.1.15,2013-02-19 20:23:00,
2013-02-19 15:24:00,55.6,30.4,29.97,WNW,294,6.0,11.0,38,0.00,,,0.57,Wunderground v.1.15,2013-02-19 20:24:00,
2013-02-19 15:26:00,55.4,28.2,29.97,West,267,9.0,11.0,35,0.00,,,0.57,Wunderground v.1.15,2013-02-19 20:26:00,
2013-02-19 15:28:00,55.2,28.7,29.97,WNW,287,6.0,11.0,36,0.00,,,0.57,Wunderground v.1.15,2013-02-19 20:28:00,
2013-02-19 15:29:00,55.2,28.7,29.97,West,279,5.0,12.0,36,0.00,,,0.57,Wunderground v.1.15,2013-02-19 20:29:00,
2013-02-19 15:31:00,54.9,28.4,29.97,WNW,299,3.0,17.0,36,0.00,,,0.57,Wunderground v.1.15,2013-02-19 20:31:00,
2013-02-19 15:33:00,54.8,29.0,29.97,West,281,4.0,17.0,37,0.00,,,0.57,Wunderground v.1.15,2013-02-19 20:33:00,
2013-02-19 15:34:00,54.9,28.4,29.97,West,269,6.0,17.0,36,0.00,,,0.57,Wunderground v.1.15,2013-02-19 20:34:00,
2013-02-19 15:36:00,54.9,27.7,29.97,WNW,295,12.0,17.0,35,0.00,,,0.57,Wunderground v.1.15,2013-02-19 20:36:00,
2013-02-19 15:38:00,54.8,26.9,29.97,WNW,294,3.0,17.0,34,0.00,,,0.57,Wunderground v.1.15,2013-02-19 20:38:00,
2013-02-19 15:39:00,54.7,27.6,29.97,WNW,299,7.0,17.0,35,0.00,,,0.57,Wunderground v.1.15,2013-02-19 20:39:00,
2013-02-19 15:42:00,54.7,25.4,29.98,WNW,298,7.0,15.0,32,0.00,,,0.57,Wunderground v.1.15,2013-02-19 20:42:00,
2013-02-19 15:43:00,54.6,26.0,29.98,West,272,6.0,15.0,33,0.00,,,0.57,Wunderground v.1.15,2013-02-19 20:43:00,
2013-02-19 15:44:00,54.5,26.7,29.97,WNW,284,13.0,15.0,34,0.00,,,0.57,Wunderground v.1.15,2013-02-19 20:44:00,
2013-02-19 15:47:00,54.6,28.2,29.98,West,281,6.0,15.0,36,0.00,,,0.57,Wunderground v.1.15,2013-02-19 20:47:00,
2013-02-19 15:48:00,54.8,26.9,29.98,NW,310,6.0,15.0,34,0.00,,,0.57,Wunderground v.1.15,2013-02-19 20:48:00,
2013-02-19 15:49:00,54.9,27.7,29.98,NW,306,1.0,15.0,35,0.00,,,0.57,Wunderground v.1.15,2013-02-19 20:49:00,
2013-02-19 15:52:00,55.0,27.1,29.98,West,272,5.0,12.0,34,0.00,,,0.57,Wunderground v.1.15,2013-02-19 20:52:00,
2013-02-19 15:53:00,55.0,26.4,29.98,WNW,287,4.0,12.0,33,0.00,,,0.57,Wunderground v.1.15,2013-02-19 20:53:00,
2013-02-19 15:54:00,55.0,27.8,29.98,NW,310,4.0,12.0,35,0.00,,,0.57,Wunderground v.1.15,2013-02-19 20:54:00,
2013-02-19 15:55:00,55.0,27.8,29.98,WNW,288,5.0,12.0,35,0.00,,,0.57,Wunderground v.1.15,2013-02-19 20:55:00,
2013-02-19 15:57:00,55.1,27.9,29.98,NW,307,5.0,12.0,35,0.00,,,0.57,Wunderground v.1.15,2013-02-19 20:57:00,
2013-02-19 15:58:00,55.1,26.5,29.98,NNW,327,6.0,12.0,33,0.00,,,0.57,Wunderground v.1.15,2013-02-19 20:58:00,
2013-02-19 15:59:00,55.1,26.5,29.98,West,278,11.0,12.0,33,0.00,,,0.57,Wunderground v.1.15,2013-02-19 20:59:00,
2013-02-19 16:00:00,55.0,26.4,29.98,WNW,298,3.0,11.0,33,0.00,,,0.57,Wunderground v.1.15,2013-02-19 21:00:00,
2013-02-19 16:02:00,55.0,27.8,29.98,WNW,303,3.0,11.0,35,0.00,,,0.57,Wunderground v.1.15,2013-02-19 21:02:00,
2013-02-19 16:03:00,54.9,25.6,29.98,WNW,300,5.0,12.0,32,0.00,,,0.57,Wunderground v.1.15,2013-02-19 21:03:00,
2013-02-19 16:05:00,54.9,28.4,29.99,West,281,4.0,12.0,36,0.00,,,0.57,Wunderground v.1.15,2013-02-19 21:05:00,
2013-02-19 16:07:00,54.8,26.2,29.99,NW,315,6.0,12.0,33,0.00,,,0.57,Wunderground v.1.15,2013-02-19 21:07:00,
2013-02-19 16:08:00,54.7,26.1,29.99,WNW,297,3.0,12.0,33,0.00,,,0.57,Wunderground v.1.15,2013-02-19 21:08:00,
2013-02-19 16:10:00,54.7,27.6,29.98,WNW,287,6.0,13.0,35,0.00,,,0.57,Wunderground v.1.15,2013-02-19 21:10:00,
2013-02-19 16:13:00,54.4,26.6,29.99,West,279,2.0,13.0,34,0.00,,,0.57,Wunderground v.1.15,2013-02-19 21:13:00,
2013-02-19 16:14:00,54.3,26.5,29.99,NW,309,5.0,13.0,34,0.00,,,0.57,Wunderground v.1.15,2013-02-19 21:14:00,
2013-02-19 16:15:00,54.2,24.9,29.99,NW,318,7.0,13.0,32,0.00,,,0.57,Wunderground v.1.15,2013-02-19 21:15:00,
2013-02-19 16:19:00,54.2,27.1,29.99,NW,313,4.0,13.0,35,0.00,,,0.57,Wunderground v.1.15,2013-02-19 21:19:00,
2013-02-19 16:20:00,54.1,26.3,29.99,West,271,5.0,9.0,34,0.00,,,0.57,Wunderground v.1.15,2013-02-19 21:20:00,
2013-02-19 16:24:00,53.8,23.8,29.99,NW,304,3.0,16.0,31,0.00,,,0.57,Wunderground v.1.15,2013-02-19 21:24:00,
2013-02-19 16:25:00,53.6,23.7,29.99,WNW,294,6.0,16.0,31,0.00,,,0.57,Wunderground v.1.15,2013-02-19 21:25:00,
2013-02-19 16:26:00,53.6,26.6,29.99,NW,311,5.0,16.0,35,0.00,,,0.57,Wunderground v.1.15,2013-02-19 21:26:00,
2013-02-19 16:29:00,53.6,26.6,29.99,NW,313,7.0,16.0,35,0.00,,,0.57,Wunderground v.1.15,2013-02-19 21:29:00,
2013-02-19 16:30:00,53.6,25.2,30.00,NW,304,13.0,14.0,33,0.00,,,0.57,Wunderground v.1.15,2013-02-19 21:30:00,
2013-02-19 16:31:00,53.6,25.2,30.00,NW,304,7.0,14.0,33,0.00,,,0.57,Wunderground v.1.15,2013-02-19 21:31:00,
2013-02-19 16:34:00,53.3,23.4,30.00,West,277,4.0,14.0,31,0.00,,,0.57,Wunderground v.1.15,2013-02-19 21:34:00,
2013-02-19 16:35:00,53.3,26.3,30.00,WSW,253,11.0,14.0,35,0.00,,,0.57,Wunderground v.1.15,2013-02-19 21:35:00,
2013-02-19 16:36:00,53.2,23.3,30.00,WNW,298,5.0,14.0,31,0.00,,,0.57,Wunderground v.1.15,2013-02-19 21:36:00,
2013-02-19 16:40:00,53.0,25.3,30.00,NNW,342,4.0,6.0,34,0.00,,,0.57,Wunderground v.1.15,2013-02-19 21:40:00,
2013-02-19 16:41:00,53.0,23.9,30.00,West,263,4.0,10.0,32,0.00,,,0.57,Wunderground v.1.15,2013-02-19 21:41:00,
2013-02-19 16:45:00,53.0,23.1,30.00,NW,311,4.0,13.0,31,0.00,,,0.57,Wunderground v.1.15,2013-02-19 21:45:00,
2013-02-19 16:46:00,53.0,24.6,30.00,NW,304,6.0,14.0,33,0.00,,,0.57,Wunderground v.1.15,2013-02-19 21:46:00,
2013-02-19 16:50:00,52.9,23.8,30.01,West,271,3.0,6.0,32,0.00,,,0.57,Wunderground v.1.15,2013-02-19 21:50:00,
2013-02-19 16:52:00,52.7,22.9,30.00,WNW,284,5.0,13.0,31,0.00,,,0.57,Wunderground v.1.15,2013-02-19 21:52:00,
2013-02-19 16:55:00,52.6,22.8,30.01,West,281,7.0,13.0,31,0.00,,,0.57,Wunderground v.1.15,2013-02-19 21:55:00,
2013-02-19 16:56:00,52.4,21.0,30.01,West,272,5.0,13.0,29,0.00,,,0.57,Wunderground v.1.15,2013-02-19 21:56:00,
2013-02-19 16:57:00,52.3,22.5,30.01,West,276,11.0,13.0,31,0.00,,,0.57,Wunderground v.1.15,2013-02-19 21:57:00,
2013-02-19 17:00:00,51.9,21.4,30.01,NNW,330,2.0,9.0,30,0.00,,,0.57,Wunderground v.1.15,2013-02-19 22:00:00,
2013-02-19 17:01:00,51.8,22.1,30.01,West,281,9.0,11.0,31,0.00,,,0.57,Wunderground v.1.15,2013-02-19 22:01:00,
2013-02-19 17:02:00,51.7,22.0,30.01,WSW,254,7.0,11.0,31,0.00,,,0.57,Wunderground v.1.15,2013-02-19 22:02:00,
2013-02-19 17:05:00,51.6,22.7,30.01,WNW,284,5.0,11.0,32,0.00,,,0.57,Wunderground v.1.15,2013-02-19 22:05:00,
2013-02-19 17:07:00,51.6,21.9,30.01,WNW,283,3.0,12.0,31,0.00,,,0.57,Wunderground v.1.15,2013-02-19 22:07:00,
2013-02-19 17:08:00,51.6,22.7,30.01,WNW,284,2.0,12.0,32,0.00,,,0.57,Wunderground v.1.15,2013-02-19 22:08:00,
2013-02-19 17:10:00,51.5,23.3,30.01,North,360,6.0,6.0,33,0.00,,,0.57,Wunderground v.1.15,2013-02-19 22:10:00,
2013-02-19 17:11:00,51.5,23.3,30.01,NW,325,5.0,6.0,33,0.00,,,0.57,Wunderground v.1.15,2013-02-19 22:11:00,
2013-02-19 17:12:00,51.5,21.8,30.01,WNW,292,3.0,7.0,31,0.00,,,0.57,Wunderground v.1.15,2013-02-19 22:12:00,
2013-02-19 17:13:00,51.4,22.5,30.02,WNW,292,4.0,7.0,32,0.00,,,0.57,Wunderground v.1.15,2013-02-19 22:13:00,
2013-02-19 17:16:00,51.3,22.4,30.02,West,271,6.0,8.0,32,0.00,,,0.57,Wunderground v.1.15,2013-02-19 22:16:00,
2013-02-19 17:17:00,51.3,22.4,30.02,WNW,301,4.0,9.0,32,0.00,,,0.57,Wunderground v.1.15,2013-02-19 22:17:00,
2013-02-19 17:18:00,51.2,21.6,30.02,NW,310,4.0,9.0,31,0.00,,,0.57,Wunderground v.1.15,2013-02-19 22:18:00,
2013-02-19 17:21:00,51.1,22.2,30.02,NNE,24,6.0,8.0,32,0.00,,,0.57,Wunderground v.1.15,2013-02-19 22:21:00,
2013-02-19 17:22:00,51.1,22.2,30.02,NW,321,4.0,8.0,32,0.00,,,0.57,Wunderground v.1.15,2013-02-19 22:22:00,
2013-02-19 17:23:00,51.0,23.6,30.01,NW,321,4.0,8.0,34,0.00,,,0.57,Wunderground v.1.15,2013-02-19 22:23:00,
2013-02-19 17:26:00,50.9,22.1,30.01,WNW,300,3.0,8.0,32,0.00,,,0.57,Wunderground v.1.15,2013-02-19 22:26:00,
2013-02-19 17:27:00,50.8,22.7,30.02,WNW,301,2.0,8.0,33,0.00,,,0.57,Wunderground v.1.15,2013-02-19 22:27:00,
2013-02-19 17:28:00,50.8,23.4,30.01,NW,315,5.0,8.0,34,0.00,,,0.57,Wunderground v.1.15,2013-02-19 22:28:00,
2013-02-19 17:31:00,50.6,22.5,30.02,West,274,3.0,7.0,33,0.00,,,0.57,Wunderground v.1.15,2013-02-19 22:31:00,
2013-02-19 17:32:00,50.6,22.5,30.02,West,274,2.0,7.0,33,0.00,,,0.57,Wunderground v.1.15,2013-02-19 22:32:00,
2013-02-19 17:33:00,50.5,22.4,30.02,West,274,3.0,7.0,33,0.00,,,0.57,Wunderground v.1.15,2013-02-19 22:33:00,
2013-02-19 17:34:00,50.5,21.7,30.02,West,279,4.0,7.0,32,0.00,,,0.57,Wunderground v.1.15,2013-02-19 22:34:00,
2013-02-19 17:36:00,50.4,21.6,30.02,WNW,296,10.0,10.0,32,0.00,,,0.57,Wunderground v.1.15,2013-02-19 22:36:00,
2013-02-19 17:37:00,50.4,23.1,30.02,WNW,294,6.0,10.0,34,0.00,,,0.57,Wunderground v.1.15,2013-02-19 22:37:00,
2013-02-19 17:39:00,50.3,21.5,30.02,WNW,297,2.0,10.0,32,0.00,,,0.57,Wunderground v.1.15,2013-02-19 22:39:00,
2013-02-19 17:41:00,50.3,22.3,30.03,WNW,284,5.0,5.0,33,0.00,,,0.57,Wunderground v.1.15,2013-02-19 22:41:00,
2013-02-19 17:42:00,50.3,23.0,30.03,WNW,302,6.0,6.0,34,0.00,,,0.57,Wunderground v.1.15,2013-02-19 22:42:00,
2013-02-19 17:44:00,50.2,21.4,30.03,West,275,4.0,9.0,32,0.00,,,0.57,Wunderground v.1.15,2013-02-19 22:44:00,
2013-02-19 17:47:00,49.9,21.2,30.03,West,279,5.0,11.0,32,0.00,,,0.57,Wunderground v.1.15,2013-02-19 22:47:00,
2013-02-19 17:49:00,49.6,21.6,30.03,West,274,6.0,12.0,33,0.00,,,0.57,Wunderground v.1.15,2013-02-19 22:49:00,
2013-02-19 17:53:00,49.4,20.7,30.03,West,267,7.0,11.0,32,0.00,,,0.57,Wunderground v.1.15,2013-02-19 22:53:00,
2013-02-19 17:54:00,49.4,20.0,30.03,WNW,286,3.0,11.0,31,0.00,,,0.57,Wunderground v.1.15,2013-02-19 22:54:00,
2013-02-19 17:55:00,49.3,21.4,30.03,WNW,286,2.0,11.0,33,0.00,,,0.57,Wunderground v.1.15,2013-02-19 22:55:00,
2013-02-19 17:58:00,49.2,19.8,30.03,WNW,302,5.0,11.0,31,0.00,,,0.57,Wunderground v.1.15,2013-02-19 22:58:00,
2013-02-19 17:59:00,49.1,20.5,30.03,West,262,2.0,11.0,32,0.00,,,0.57,Wunderground v.1.15,2013-02-19 22:59:00,
2013-02-19 18:00:00,48.9,18.8,30.03,West,264,6.0,10.0,30,0.00,,,0.57,Wunderground v.1.15,2013-02-19 23:00:00,
2013-02-19 18:03:00,48.7,20.1,30.03,WNW,298,2.0,10.0,32,0.00,,,0.57,Wunderground v.1.15,2013-02-19 23:03:00,
2013-02-19 18:04:00,48.6,20.0,30.04,WNW,296,2.0,10.0,32,0.00,,,0.57,Wunderground v.1.15,2013-02-19 23:04:00,
2013-02-19 18:06:00,48.4,19.9,30.04,West,264,3.0,10.0,32,0.00,,,0.57,Wunderground v.1.15,2013-02-19 23:06:00,
2013-02-19 18:08:00,48.2,21.1,30.04,West,281,3.0,10.0,34,0.00,,,0.57,Wunderground v.1.15,2013-02-19 23:08:00,
2013-02-19 18:09:00,48.1,19.6,30.04,West,276,3.0,5.0,32,0.00,,,0.57,Wunderground v.1.15,2013-02-19 23:09:00,
2013-02-19 18:10:00,48.1,19.6,30.04,West,277,3.0,5.0,32,0.00,,,0.57,Wunderground v.1.15,2013-02-19 23:10:00,
2013-02-19 18:11:00,47.9,20.1,30.04,WNW,284,7.0,9.0,33,0.00,,,0.57,Wunderground v.1.15,2013-02-19 23:11:00,
2013-02-19 18:13:00,47.8,20.8,30.04,WNW,287,2.0,9.0,34,0.00,,,0.57,Wunderground v.1.15,2013-02-19 23:13:00,
2013-02-19 18:15:00,47.7,20.0,30.05,WNW,286,4.0,9.0,33,0.00,,,0.57,Wunderground v.1.15,2013-02-19 23:15:00,
2013-02-19 18:16:00,47.6,19.9,30.05,WNW,296,2.0,9.0,33,0.00,,,0.57,Wunderground v.1.15,2013-02-19 23:16:00,
2013-02-19 18:18:00,47.4,19.7,30.05,WNW,290,4.0,10.0,33,0.00,,,0.57,Wunderground v.1.15,2013-02-19 23:18:00,
2013-02-19 18:20:00,47.3,21.0,30.05,West,281,4.0,6.0,35,0.00,,,0.57,Wunderground v.1.15,2013-02-19 23:20:00,
2013-02-19 18:21:00,47.2,18.8,30.05,WNW,284,1.0,8.0,32,0.00,,,0.57,Wunderground v.1.15,2013-02-19 23:21:00,
2013-02-19 18:23:00,47.2,19.5,30.05,WNW,284,5.0,8.0,33,0.00,,,0.57,Wunderground v.1.15,2013-02-19 23:23:00,
2013-02-19 18:25:00,47.1,19.4,30.05,WNW,284,2.0,8.0,33,0.00,,,0.57,Wunderground v.1.15,2013-02-19 23:25:00,
2013-02-19 18:26:00,47.0,20.0,30.05,WNW,283,3.0,8.0,34,0.00,,,0.57,Wunderground v.1.15,2013-02-19 23:26:00,
2013-02-19 18:28:00,46.9,19.3,30.05,WNW,283,6.0,8.0,33,0.00,,,0.57,Wunderground v.1.15,2013-02-19 23:28:00,
2013-02-19 18:31:00,46.7,19.8,30.06,WNW,289,3.0,4.0,34,0.00,,,0.57,Wunderground v.1.15,2013-02-19 23:31:00,
2013-02-19 18:32:00,46.6,19.7,30.06,WNW,289,3.0,4.0,34,0.00,,,0.57,Wunderground v.1.15,2013-02-19 23:32:00,
2013-02-19 18:34:00,46.4,19.5,30.06,WNW,289,2.0,5.0,34,0.00,,,0.57,Wunderground v.1.15,2013-02-19 23:34:00,
2013-02-19 18:36:00,46.3,20.1,30.06,WNW,288,1.0,5.0,35,0.00,,,0.57,Wunderground v.1.15,2013-02-19 23:36:00,
2013-02-19 18:37:00,46.1,21.2,30.06,WNW,288,2.0,5.0,37,0.00,,,0.57,Wunderground v.1.15,2013-02-19 23:37:00,
2013-02-19 18:39:00,46.0,19.8,30.06,West,268,9.0,9.0,35,0.00,,,0.57,Wunderground v.1.15,2013-02-19 23:39:00,
2013-02-19 18:41:00,45.9,19.1,30.06,West,268,3.0,5.0,34,0.00,,,0.57,Wunderground v.1.15,2013-02-19 23:41:00,
2013-02-19 18:42:00,45.8,18.3,30.06,WNW,289,7.0,9.0,33,0.00,,,0.57,Wunderground v.1.15,2013-02-19 23:42:00,
2013-02-19 18:44:00,45.7,19.6,30.06,WNW,292,4.0,10.0,35,0.00,,,0.57,Wunderground v.1.15,2013-02-19 23:44:00,
2013-02-19 18:46:00,45.6,18.1,30.06,West,277,5.0,10.0,33,0.00,,,0.57,Wunderground v.1.15,2013-02-19 23:46:00,
2013-02-19 18:47:00,45.6,18.1,30.06,NW,312,2.0,10.0,33,0.00,,,0.57,Wunderground v.1.15,2013-02-19 23:47:00,
2013-02-19 18:49:00,45.5,18.7,30.06,WSW,242,11.0,12.0,34,0.00,,,0.57,Wunderground v.1.15,2013-02-19 23:49:00,
2013-02-19 18:51:00,45.6,17.4,30.06,West,268,3.0,12.0,32,0.00,,,0.57,Wunderground v.1.15,2013-02-19 23:51:00,
2013-02-19 18:52:00,45.7,18.2,30.06,WSW,254,3.0,12.0,33,0.00,,,0.57,Wunderground v.1.15,2013-02-19 23:52:00,
2013-02-19 18:54:00,45.6,17.4,30.06,WNW,302,6.0,12.0,32,0.00,,,0.57,Wunderground v.1.15,2013-02-19 23:54:00,
2013-02-19 18:56:00,45.6,17.4,30.06,WNW,298,3.0,12.0,32,0.00,,,0.57,Wunderground v.1.15,2013-02-19 23:56:00,
2013-02-19 18:57:00,45.6,17.4,30.07,NW,305,4.0,12.0,32,0.00,,,0.57,Wunderground v.1.15,2013-02-19 23:57:00,
2013-02-19 18:59:00,45.5,17.3,30.07,NW,310,5.0,12.0,32,0.00,,,0.57,Wunderground v.1.15,2013-02-19 23:59:00,
2013-02-19 19:01:00,45.5,16.6,30.07,West,273,5.0,8.0,31,0.00,,,0.57,Wunderground v.1.15,2013-02-20 00:01:00,
2013-02-19 19:03:00,45.6,17.4,30.07,West,275,2.0,8.0,32,0.00,,,0.57,Wunderground v.1.15,2013-02-20 00:03:00,
2013-02-19 19:05:00,45.5,17.3,30.07,West,276,3.0,8.0,32,0.00,,,0.57,Wunderground v.1.15,2013-02-20 00:05:00,
2013-02-19 19:06:00,45.4,17.2,30.07,West,277,3.0,8.0,32,0.00,,,0.57,Wunderground v.1.15,2013-02-20 00:06:00,
2013-02-19 19:08:00,45.3,17.1,30.07,West,277,2.0,8.0,32,0.00,,,0.57,Wunderground v.1.15,2013-02-20 00:08:00,
2013-02-19 19:09:00,45.3,17.1,30.07,West,279,2.0,8.0,32,0.00,,,0.57,Wunderground v.1.15,2013-02-20 00:09:00,
2013-02-19 19:10:00,45.1,17.0,30.07,West,279,6.0,6.0,32,0.00,,,0.57,Wunderground v.1.15,2013-02-20 00:10:00,
2013-02-19 19:12:00,45.0,17.6,30.07,West,279,2.0,6.0,33,0.00,,,0.57,Wunderground v.1.15,2013-02-20 00:12:00,
2013-02-19 19:13:00,44.9,17.5,30.07,West,279,1.0,6.0,33,0.00,,,0.57,Wunderground v.1.15,2013-02-20 00:13:00,
2013-02-19 19:14:00,44.8,17.4,30.07,West,279,2.0,6.0,33,0.00,,,0.57,Wunderground v.1.15,2013-02-20 00:14:00,
2013-02-19 19:16:00,44.6,17.2,30.08,West,279,2.0,6.0,33,0.00,,,0.57,Wunderground v.1.15,2013-02-20 00:16:00,
2013-02-19 19:17:00,44.5,17.8,30.07,West,279,1.0,6.0,34,0.00,,,0.57,Wunderground v.1.15,2013-02-20 00:17:00,
2013-02-19 19:18:00,44.4,17.1,30.08,WNW,286,5.0,6.0,33,0.00,,,0.57,Wunderground v.1.15,2013-02-20 00:18:00,
2013-02-19 19:20:00,44.4,17.7,30.08,WNW,286,1.0,2.0,34,0.00,,,0.57,Wunderground v.1.15,2013-02-20 00:20:00,
2013-02-19 19:21:00,44.3,17.0,30.08,WNW,286,1.0,3.0,33,0.00,,,0.57,Wunderground v.1.15,2013-02-20 00:21:00,
2013-02-19 19:22:00,44.3,17.0,30.08,WNW,286,2.0,3.0,33,0.00,,,0.57,Wunderground v.1.15,2013-02-20 00:22:00,
2013-02-19 19:23:00,44.2,16.9,30.08,WNW,286,3.0,5.0,33,0.00,,,0.57,Wunderground v.1.15,2013-02-20 00:23:00,
2013-02-19 19:25:00,44.2,16.9,30.08,WNW,286,2.0,5.0,33,0.00,,,0.57,Wunderground v.1.15,2013-02-20 00:25:00,
2013-02-19 19:26:00,44.2,16.9,30.08,WNW,286,2.0,5.0,33,0.00,,,0.57,Wunderground v.1.15,2013-02-20 00:26:00,
2013-02-19 19:27:00,44.1,17.5,30.08,WNW,286,2.0,5.0,34,0.00,,,0.57,Wunderground v.1.15,2013-02-20 00:27:00,
2013-02-19 19:28:00,44.0,17.4,30.08,WNW,286,1.0,5.0,34,0.00,,,0.57,Wunderground v.1.15,2013-02-20 00:28:00,
2013-02-19 19:30:00,43.9,17.3,30.08,WNW,286,3.0,3.0,34,0.00,,,0.57,Wunderground v.1.15,2013-02-20 00:30:00,
2013-02-19 19:31:00,43.9,16.6,30.08,WNW,286,2.0,5.0,33,0.00,,,0.57,Wunderground v.1.15,2013-02-20 00:31:00,
2013-02-19 19:32:00,43.9,17.3,30.08,WNW,286,2.0,5.0,34,0.00,,,0.57,Wunderground v.1.15,2013-02-20 00:32:00,
2013-02-19 19:33:00,43.9,16.6,30.09,WNW,286,2.0,5.0,33,0.00,,,0.57,Wunderground v.1.15,2013-02-20 00:33:00,
2013-02-19 19:36:00,43.8,17.2,30.08,WNW,286,0.0,5.0,34,0.00,,,0.57,Wunderground v.1.15,2013-02-20 00:36:00,
2013-02-19 19:37:00,43.8,17.2,30.08,WNW,286,2.0,5.0,34,0.00,,,0.57,Wunderground v.1.15,2013-02-20 00:37:00,
2013-02-19 19:39:00,43.8,16.5,30.09,WNW,286,2.0,5.0,33,0.00,,,0.57,Wunderground v.1.15,2013-02-20 00:39:00,
2013-02-19 19:42:00,43.7,17.8,30.09,WNW,286,1.0,4.0,35,0.00,,,0.57,Wunderground v.1.15,2013-02-20 00:42:00,
2013-02-19 19:44:00,43.6,17.0,30.09,WNW,286,1.0,4.0,34,0.00,,,0.57,Wunderground v.1.15,2013-02-20 00:44:00,
2013-02-19 19:47:00,43.5,16.9,30.09,WNW,286,1.0,6.0,34,0.00,,,0.57,Wunderground v.1.15,2013-02-20 00:47:00,
2013-02-19 19:48:00,43.5,17.6,30.09,WNW,286,2.0,6.0,35,0.00,,,0.57,Wunderground v.1.15,2013-02-20 00:48:00,
2013-02-19 19:49:00,43.4,17.5,30.09,WNW,286,2.0,6.0,35,0.00,,,0.57,Wunderground v.1.15,2013-02-20 00:49:00,
2013-02-19 19:52:00,43.3,17.4,30.08,WNW,286,2.0,4.0,35,0.00,,,0.57,Wunderground v.1.15,2013-02-20 00:52:00,
2013-02-19 19:53:00,43.3,17.4,30.08,WNW,286,2.0,4.0,35,0.00,,,0.57,Wunderground v.1.15,2013-02-20 00:53:00,
2013-02-19 19:54:00,43.3,17.4,30.09,WNW,286,0.0,4.0,35,0.00,,,0.57,Wunderground v.1.15,2013-02-20 00:54:00,
2013-02-19 19:58:00,43.1,18.6,30.09,WNW,286,0.0,4.0,37,0.00,,,0.57,Wunderground v.1.15,2013-02-20 00:58:00,
2013-02-19 19:59:00,42.9,17.7,30.09,WNW,286,1.0,1.0,36,0.00,,,0.57,Wunderground v.1.15,2013-02-20 00:59:00,
2013-02-19 20:03:00,42.6,17.5,30.09,WNW,286,1.0,3.0,36,0.00,,,0.57,Wunderground v.1.15,2013-02-20 01:03:00,
2013-02-19 20:05:00,42.4,19.2,30.09,WNW,286,0.0,3.0,39,0.00,,,0.57,Wunderground v.1.15,2013-02-20 01:05:00,
2013-02-19 20:08:00,42.0,17.6,30.09,WNW,286,0.0,3.0,37,0.00,,,0.57,Wunderground v.1.15,2013-02-20 01:08:00,
2013-02-19 20:10:00,41.8,18.6,30.09,WNW,286,0.0,1.0,39,0.00,,,0.57,Wunderground v.1.15,2013-02-20 01:10:00,
2013-02-19 20:13:00,41.4,18.9,30.09,WNW,286,0.0,1.0,40,0.00,,,0.57,Wunderground v.1.15,2013-02-20 01:13:00,
2013-02-19 20:14:00,41.3,18.8,30.09,WNW,286,0.0,1.0,40,0.00,,,0.57,Wunderground v.1.15,2013-02-20 01:14:00,
2013-02-19 20:15:00,41.2,18.7,30.09,WNW,286,0.0,1.0,40,0.00,,,0.57,Wunderground v.1.15,2013-02-20 01:15:00,
2013-02-19 20:18:00,40.9,18.4,30.09,WNW,286,2.0,4.0,40,0.00,,,0.57,Wunderground v.1.15,2013-02-20 01:18:00,
2013-02-19 20:19:00,40.8,18.3,30.09,WNW,286,3.0,4.0,40,0.00,,,0.57,Wunderground v.1.15,2013-02-20 01:19:00,
2013-02-19 20:20:00,40.7,17.6,30.10,WNW,286,0.0,1.0,39,0.00,,,0.57,Wunderground v.1.15,2013-02-20 01:20:00,
2013-02-19 20:23:00,40.6,17.5,30.09,WNW,286,1.0,3.0,39,0.00,,,0.57,Wunderground v.1.15,2013-02-20 01:23:00,
2013-02-19 20:24:00,40.6,18.1,30.09,WNW,286,0.0,3.0,40,0.00,,,0.57,Wunderground v.1.15,2013-02-20 01:24:00,
2013-02-19 20:25:00,40.5,18.0,30.09,WNW,286,3.0,3.0,40,0.00,,,0.57,Wunderground v.1.15,2013-02-20 01:25:00,
2013-02-19 20:28:00,40.4,18.5,30.10,WNW,286,0.0,5.0,41,0.00,,,0.57,Wunderground v.1.15,2013-02-20 01:28:00,
2013-02-19 20:29:00,40.3,18.4,30.10,WNW,286,2.0,5.0,41,0.00,,,0.57,Wunderground v.1.15,2013-02-20 01:29:00,
2013-02-19 20:30:00,40.3,18.4,30.10,WNW,286,2.0,2.0,41,0.00,,,0.57,Wunderground v.1.15,2013-02-20 01:30:00,
2013-02-19 20:34:00,40.1,18.3,30.10,WNW,290,2.0,2.0,41,0.00,,,0.57,Wunderground v.1.15,2013-02-20 01:34:00,
2013-02-19 20:35:00,40.0,18.7,30.10,WNW,290,1.0,4.0,42,0.00,,,0.57,Wunderground v.1.15,2013-02-20 01:35:00,
2013-02-19 20:36:00,39.9,18.6,30.10,WNW,290,0.0,4.0,42,0.00,,,0.57,Wunderground v.1.15,2013-02-20 01:36:00,
2013-02-19 20:39:00,39.7,18.5,30.10,WNW,290,0.0,4.0,42,0.00,,,0.57,Wunderground v.1.15,2013-02-20 01:39:00,
2013-02-19 20:40:00,39.6,18.4,30.10,WNW,290,0.0,0.0,42,0.00,,,0.57,Wunderground v.1.15,2013-02-20 01:40:00,
2013-02-19 20:42:00,39.5,18.3,30.10,WNW,290,0.0,0.0,42,0.00,,,0.57,Wunderground v.1.15,2013-02-20 01:42:00,
2013-02-19 20:44:00,39.3,18.6,30.11,WNW,290,0.0,1.0,43,0.00,,,0.57,Wunderground v.1.15,2013-02-20 01:44:00,
2013-02-19 20:45:00,39.3,18.1,30.10,WNW,290,2.0,2.0,42,0.00,,,0.57,Wunderground v.1.15,2013-02-20 01:45:00,
2013-02-19 20:46:00,39.3,18.1,30.10,WNW,290,0.0,2.0,42,0.00,,,0.57,Wunderground v.1.15,2013-02-20 01:46:00,
2013-02-19 20:47:00,39.2,18.5,30.10,WNW,290,0.0,2.0,43,0.00,,,0.57,Wunderground v.1.15,2013-02-20 01:47:00,
2013-02-19 20:49:00,39.2,18.5,30.10,WNW,290,1.0,1.0,43,0.00,,,0.57,Wunderground v.1.15,2013-02-20 01:49:00,
2013-02-19 20:51:00,39.2,18.5,30.11,WNW,290,0.0,2.0,43,0.00,,,0.57,Wunderground v.1.15,2013-02-20 01:51:00,
2013-02-19 20:52:00,39.2,19.1,30.10,WNW,290,0.0,2.0,44,0.00,,,0.57,Wunderground v.1.15,2013-02-20 01:52:00,
2013-02-19 20:55:00,39.2,19.1,30.10,WNW,290,0.0,2.0,44,0.00,,,0.57,Wunderground v.1.15,2013-02-20 01:55:00,
2013-02-19 20:56:00,39.1,18.5,30.10,WNW,290,0.0,2.0,43,0.00,,,0.57,Wunderground v.1.15,2013-02-20 01:56:00,
2013-02-19 20:57:00,39.1,18.5,30.10,WNW,290,0.0,2.0,43,0.00,,,0.57,Wunderground v.1.15,2013-02-20 01:57:00,
2013-02-19 21:00:00,39.0,18.4,30.10,WNW,290,0.0,0.0,43,0.00,,,0.57,Wunderground v.1.15,2013-02-20 02:00:00,
2013-02-19 21:01:00,38.9,18.3,30.10,WNW,290,0.0,0.0,43,0.00,,,0.57,Wunderground v.1.15,2013-02-20 02:01:00,
2013-02-19 21:02:00,38.9,18.3,30.10,WNW,290,0.0,0.0,43,0.00,,,0.57,Wunderground v.1.15,2013-02-20 02:02:00,
2013-02-19 21:05:00,38.8,18.2,30.10,WNW,290,0.0,0.0,43,0.00,,,0.57,Wunderground v.1.15,2013-02-20 02:05:00,
2013-02-19 21:06:00,38.8,18.2,30.10,WNW,290,0.0,1.0,43,0.00,,,0.57,Wunderground v.1.15,2013-02-20 02:06:00,
2013-02-19 21:07:00,38.8,18.2,30.10,WNW,290,0.0,1.0,43,0.00,,,0.57,Wunderground v.1.15,2013-02-20 02:07:00,
2013-02-19 21:10:00,38.8,18.7,30.10,WNW,290,0.0,0.0,44,0.00,,,0.57,Wunderground v.1.15,2013-02-20 02:10:00,
2013-02-19 21:11:00,38.8,18.7,30.10,WNW,290,0.0,0.0,44,0.00,,,0.57,Wunderground v.1.15,2013-02-20 02:11:00,
2013-02-19 21:12:00,38.8,18.7,30.10,WNW,290,1.0,1.0,44,0.00,,,0.57,Wunderground v.1.15,2013-02-20 02:12:00,
2013-02-19 21:15:00,38.8,18.7,30.10,WNW,290,0.0,1.0,44,0.00,,,0.57,Wunderground v.1.15,2013-02-20 02:15:00,
2013-02-19 21:16:00,38.8,18.7,30.10,WNW,290,0.0,1.0,44,0.00,,,0.57,Wunderground v.1.15,2013-02-20 02:16:00,
2013-02-19 21:17:00,38.8,18.7,30.10,WNW,290,0.0,1.0,44,0.00,,,0.57,Wunderground v.1.15,2013-02-20 02:17:00,
2013-02-19 21:18:00,38.8,18.7,30.10,WNW,290,0.0,1.0,44,0.00,,,0.57,Wunderground v.1.15,2013-02-20 02:18:00,
2013-02-19 21:20:00,38.8,18.7,30.11,WNW,290,0.0,1.0,44,0.00,,,0.57,Wunderground v.1.15,2013-02-20 02:20:00,
2013-02-19 21:22:00,38.8,18.7,30.11,WNW,290,0.0,1.0,44,0.00,,,0.57,Wunderground v.1.15,2013-02-20 02:22:00,
2013-02-19 21:23:00,38.8,18.7,30.11,WNW,290,0.0,1.0,44,0.00,,,0.57,Wunderground v.1.15,2013-02-20 02:23:00,
2013-02-19 21:25:00,38.9,18.3,30.11,WNW,290,0.0,1.0,43,0.00,,,0.57,Wunderground v.1.15,2013-02-20 02:25:00,
2013-02-19 21:27:00,39.0,18.4,30.11,WNW,290,1.0,2.0,43,0.00,,,0.57,Wunderground v.1.15,2013-02-20 02:27:00,
2013-02-19 21:28:00,39.0,18.4,30.11,WNW,290,0.0,2.0,43,0.00,,,0.57,Wunderground v.1.15,2013-02-20 02:28:00,
2013-02-19 21:31:00,39.0,18.4,30.11,WNW,290,0.0,1.0,43,0.00,,,0.57,Wunderground v.1.15,2013-02-20 02:31:00,
2013-02-19 21:32:00,39.1,18.5,30.11,WNW,290,1.0,1.0,43,0.00,,,0.57,Wunderground v.1.15,2013-02-20 02:32:00,
2013-02-19 21:33:00,39.1,18.5,30.11,WNW,290,0.0,1.0,43,0.00,,,0.57,Wunderground v.1.15,2013-02-20 02:33:00,
2013-02-19 21:34:00,39.1,18.5,30.11,WNW,290,0.0,1.0,43,0.00,,,0.57,Wunderground v.1.15,2013-02-20 02:34:00,
2013-02-19 21:36:00,39.0,18.4,30.11,WNW,290,0.0,1.0,43,0.00,,,0.57,Wunderground v.1.15,2013-02-20 02:36:00,
2013-02-19 21:38:00,39.0,18.4,30.12,WNW,290,0.0,1.0,43,0.00,,,0.57,Wunderground v.1.15,2013-02-20 02:38:00,
2013-02-19 21:40:00,38.9,18.3,30.12,WNW,290,0.0,0.0,43,0.00,,,0.57,Wunderground v.1.15,2013-02-20 02:40:00,
2013-02-19 21:41:00,38.9,18.3,30.12,WNW,290,0.0,0.0,43,0.00,,,0.57,Wunderground v.1.15,2013-02-20 02:41:00,
2013-02-19 21:43:00,38.8,18.2,30.12,WNW,290,0.0,0.0,43,0.00,,,0.57,Wunderground v.1.15,2013-02-20 02:43:00,
2013-02-19 21:45:00,38.8,18.2,30.12,WNW,290,0.0,0.0,43,0.00,,,0.57,Wunderground v.1.15,2013-02-20 02:45:00,
2013-02-19 21:46:00,38.7,18.1,30.12,WNW,290,0.0,0.0,43,0.00,,,0.57,Wunderground v.1.15,2013-02-20 02:46:00,
2013-02-19 21:48:00,38.7,18.1,30.12,WNW,290,0.0,0.0,43,0.00,,,0.57,Wunderground v.1.15,2013-02-20 02:48:00,
2013-02-19 21:50:00,38.7,18.1,30.12,WNW,290,0.0,1.0,43,0.00,,,0.57,Wunderground v.1.15,2013-02-20 02:50:00,
2013-02-19 21:51:00,38.7,18.1,30.12,WNW,290,2.0,2.0,43,0.00,,,0.57,Wunderground v.1.15,2013-02-20 02:51:00,
2013-02-19 21:54:00,38.8,18.2,30.13,WNW,290,0.0,3.0,43,0.00,,,0.57,Wunderground v.1.15,2013-02-20 02:54:00,
2013-02-19 21:55:00,38.9,18.3,30.13,WNW,290,0.0,3.0,43,0.00,,,0.57,Wunderground v.1.15,2013-02-20 02:55:00,
2013-02-19 21:56:00,38.9,18.3,30.13,WNW,290,0.0,3.0,43,0.00,,,0.57,Wunderground v.1.15,2013-02-20 02:56:00,
2013-02-19 21:59:00,38.9,18.3,30.13,WNW,290,0.0,3.0,43,0.00,,,0.57,Wunderground v.1.15,2013-02-20 02:59:00,
2013-02-19 22:00:00,38.9,18.3,30.13,WNW,290,1.0,2.0,43,0.00,,,0.57,Wunderground v.1.15,2013-02-20 03:00:00,
2013-02-19 22:02:00,38.9,18.8,30.13,WNW,290,0.0,2.0,44,0.00,,,0.57,Wunderground v.1.15,2013-02-20 03:02:00,
2013-02-19 22:04:00,38.9,18.3,30.13,WNW,290,0.0,2.0,43,0.00,,,0.57,Wunderground v.1.15,2013-02-20 03:04:00,
2013-02-19 22:05:00,38.9,18.3,30.13,WNW,290,0.0,2.0,43,0.00,,,0.57,Wunderground v.1.15,2013-02-20 03:05:00,
2013-02-19 22:07:00,38.9,18.3,30.13,WNW,290,1.0,2.0,43,0.00,,,0.57,Wunderground v.1.15,2013-02-20 03:07:00,
2013-02-19 22:09:00,38.8,18.7,30.13,WNW,290,1.0,4.0,44,0.00,,,0.57,Wunderground v.1.15,2013-02-20 03:09:00,
2013-02-19 22:10:00,38.8,18.7,30.13,WNW,290,0.0,1.0,44,0.00,,,0.57,Wunderground v.1.15,2013-02-20 03:10:00,
2013-02-19 22:13:00,38.8,19.8,30.13,WNW,290,1.0,2.0,46,0.00,,,0.57,Wunderground v.1.15,2013-02-20 03:13:00,
2013-02-19 22:14:00,38.8,19.8,30.13,WNW,290,0.0,2.0,46,0.00,,,0.57,Wunderground v.1.15,2013-02-20 03:14:00,
2013-02-19 22:15:00,38.7,19.7,30.13,WNW,290,2.0,2.0,46,0.00,,,0.57,Wunderground v.1.15,2013-02-20 03:15:00,
2013-02-19 22:18:00,38.6,19.1,30.13,WNW,290,1.0,3.0,45,0.00,,,0.57,Wunderground v.1.15,2013-02-20 03:18:00,
2013-02-19 22:19:00,38.6,19.1,30.13,WNW,291,0.0,1.0,45,0.00,,,0.57,Wunderground v.1.15,2013-02-20 03:19:00,
2013-02-19 22:20:00,38.5,19.0,30.13,NNW,348,5.0,7.0,45,0.00,,,0.57,Wunderground v.1.15,2013-02-20 03:20:00,
2013-02-19 22:21:00,38.5,19.0,30.13,NNW,333,7.0,9.0,45,0.00,,,0.57,Wunderground v.1.15,2013-02-20 03:21:00,
2013-02-19 22:24:00,38.2,19.7,30.14,NNW,331,1.0,9.0,47,0.00,,,0.57,Wunderground v.1.15,2013-02-20 03:24:00,
2013-02-19 22:25:00,38.1,20.1,30.14,NNW,332,1.0,9.0,48,0.00,,,0.57,Wunderground v.1.15,2013-02-20 03:25:00,
2013-02-19 22:26:00,38.1,20.1,30.14,NNW,331,2.0,9.0,48,0.00,,,0.57,Wunderground v.1.15,2013-02-20 03:26:00,
2013-02-19 22:29:00,37.9,19.4,30.14,NNW,332,1.0,9.0,47,0.00,,,0.57,Wunderground v.1.15,2013-02-20 03:29:00,
2013-02-19 22:30:00,37.9,19.4,30.14,NNW,331,1.0,1.0,47,0.00,,,0.57,Wunderground v.1.15,2013-02-20 03:30:00,
2013-02-19 22:31:00,37.9,19.4,30.14,NNW,332,2.0,2.0,47,0.00,,,0.57,Wunderground v.1.15,2013-02-20 03:31:00,
2013-02-19 22:34:00,37.9,18.9,30.14,NNW,332,0.0,2.0,46,0.00,,,0.57,Wunderground v.1.15,2013-02-20 03:34:00,
2013-02-19 22:35:00,37.9,19.4,30.14,NNW,331,0.0,2.0,47,0.00,,,0.57,Wunderground v.1.15,2013-02-20 03:35:00,
2013-02-19 22:36:00,37.9,19.4,30.14,NNW,331,0.0,2.0,47,0.00,,,0.57,Wunderground v.1.15,2013-02-20 03:36:00,
2013-02-19 22:39:00,37.9,19.4,30.14,NNW,332,2.0,2.0,47,0.00,,,0.57,Wunderground v.1.15,2013-02-20 03:39:00,
2013-02-19 22:40:00,37.8,19.3,30.14,NNW,331,2.0,3.0,47,0.00,,,0.57,Wunderground v.1.15,2013-02-20 03:40:00,
2013-02-19 22:41:00,37.8,18.8,30.14,NNW,332,2.0,4.0,46,0.00,,,0.57,Wunderground v.1.15,2013-02-20 03:41:00,
2013-02-19 22:42:00,37.8,19.3,30.14,NNW,332,0.0,4.0,47,0.00,,,0.57,Wunderground v.1.15,2013-02-20 03:42:00,
2013-02-19 22:45:00,37.4,19.5,30.14,NNW,332,0.0,4.0,48,0.00,,,0.57,Wunderground v.1.15,2013-02-20 03:45:00,
2013-02-19 22:46:00,37.3,19.4,30.15,NNW,332,2.0,4.0,48,0.00,,,0.57,Wunderground v.1.15,2013-02-20 03:46:00,
2013-02-19 22:47:00,37.3,19.4,30.15,NNW,332,2.0,4.0,48,0.00,,,0.57,Wunderground v.1.15,2013-02-20 03:47:00,
2013-02-19 22:50:00,37.0,19.6,30.15,NNW,330,5.0,7.0,49,0.00,,,0.57,Wunderground v.1.15,2013-02-20 03:50:00,
2013-02-19 22:52:00,37.0,19.1,30.15,NNW,330,2.0,7.0,48,0.00,,,0.57,Wunderground v.1.15,2013-02-20 03:52:00,
2013-02-19 22:55:00,37.2,18.8,30.15,NNW,329,1.0,7.0,47,0.00,,,0.57,Wunderground v.1.15,2013-02-20 03:55:00,
2013-02-19 22:57:00,37.3,19.4,30.16,NNW,329,1.0,7.0,48,0.00,,,0.57,Wunderground v.1.15,2013-02-20 03:57:00,
2013-02-19 23:00:00,37.2,19.8,30.16,NNW,329,0.0,2.0,49,0.00,,,0.57,Wunderground v.1.15,2013-02-20 04:00:00,
2013-02-19 23:02:00,37.1,19.2,30.16,NNW,329,1.0,2.0,48,0.00,,,0.57,Wunderground v.1.15,2013-02-20 04:02:00,
2013-02-19 23:03:00,37.1,19.2,30.16,NNW,329,1.0,2.0,48,0.00,,,0.57,Wunderground v.1.15,2013-02-20 04:03:00,
2013-02-19 23:05:00,37.0,18.6,30.16,NNW,329,1.0,2.0,47,0.00,,,0.57,Wunderground v.1.15,2013-02-20 04:05:00,
2013-02-19 23:06:00,37.0,18.6,30.17,NNW,329,0.0,2.0,47,0.00,,,0.57,Wunderground v.1.15,2013-02-20 04:06:00,
2013-02-19 23:07:00,37.0,18.6,30.17,NNW,329,1.0,2.0,47,0.00,,,0.57,Wunderground v.1.15,2013-02-20 04:07:00,
2013-02-19 23:08:00,37.0,18.6,30.17,NNW,329,1.0,2.0,47,0.00,,,0.57,Wunderground v.1.15,2013-02-20 04:08:00,
2013-02-19 23:10:00,37.1,18.7,30.17,NNW,329,0.0,1.0,47,0.00,,,0.57,Wunderground v.1.15,2013-02-20 04:10:00,
2013-02-19 23:11:00,37.1,18.7,30.17,NNW,329,0.0,1.0,47,0.00,,,0.57,Wunderground v.1.15,2013-02-20 04:11:00,
2013-02-19 23:12:00,37.1,18.7,30.17,NNW,329,1.0,1.0,47,0.00,,,0.57,Wunderground v.1.15,2013-02-20 04:12:00,
2013-02-19 23:13:00,37.1,18.7,30.17,NNW,329,2.0,2.0,47,0.00,,,0.57,Wunderground v.1.15,2013-02-20 04:13:00,
2013-02-19 23:16:00,37.2,18.8,30.17,NNW,337,2.0,6.0,47,0.00,,,0.57,Wunderground v.1.15,2013-02-20 04:16:00,
2013-02-19 23:18:00,37.2,19.3,30.17,NNW,338,2.0,6.0,48,0.00,,,0.57,Wunderground v.1.15,2013-02-20 04:18:00,
2013-02-19 23:19:00,37.2,19.3,30.17,NNW,338,2.0,6.0,48,0.00,,,0.57,Wunderground v.1.15,2013-02-20 04:19:00,
2013-02-19 23:21:00,37.3,19.4,30.18,NNW,337,2.0,4.0,48,0.00,,,0.57,Wunderground v.1.15,2013-02-20 04:21:00,
2013-02-19 23:22:00,37.3,19.4,30.18,NNW,338,3.0,4.0,48,0.00,,,0.57,Wunderground v.1.15,2013-02-20 04:22:00,
2013-02-19 23:23:00,37.3,19.4,30.18,NNW,337,3.0,4.0,48,0.00,,,0.57,Wunderground v.1.15,2013-02-20 04:23:00,
2013-02-19 23:24:00,37.2,19.8,30.18,NW,324,2.0,7.0,49,0.00,,,0.57,Wunderground v.1.15,2013-02-20 04:24:00,
2013-02-19 23:27:00,37.1,19.7,30.18,NW,324,1.0,7.0,49,0.00,,,0.57,Wunderground v.1.15,2013-02-20 04:27:00,
2013-02-19 23:28:00,37.0,20.1,30.18,NW,323,3.0,7.0,50,0.00,,,0.57,Wunderground v.1.15,2013-02-20 04:28:00,
2013-02-19 23:29:00,36.8,19.9,30.18,NW,323,1.0,7.0,50,0.00,,,0.57,Wunderground v.1.15,2013-02-20 04:29:00,
2013-02-19 23:32:00,36.6,19.7,30.18,NW,324,1.0,2.0,50,0.00,,,0.57,Wunderground v.1.15,2013-02-20 04:32:00,
2013-02-19 23:33:00,36.5,19.6,30.18,NW,323,2.0,2.0,50,0.00,,,0.57,Wunderground v.1.15,2013-02-20 04:33:00,
2013-02-19 23:34:00,36.3,19.9,30.18,NW,323,1.0,2.0,51,0.00,,,0.57,Wunderground v.1.15,2013-02-20 04:34:00,
2013-02-19 23:37:00,36.2,19.3,30.18,NW,324,2.0,2.0,50,0.00,,,0.57,Wunderground v.1.15,2013-02-20 04:37:00,
2013-02-19 23:38:00,36.1,19.2,30.18,NW,323,2.0,3.0,50,0.00,,,0.57,Wunderground v.1.15,2013-02-20 04:38:00,
2013-02-19 23:40:00,36.2,18.9,30.18,NW,324,2.0,3.0,49,0.00,,,0.57,Wunderground v.1.15,2013-02-20 04:40:00,
2013-02-19 23:42:00,36.3,19.4,30.18,NW,323,2.0,4.0,50,0.00,,,0.57,Wunderground v.1.15,2013-02-20 04:42:00,
2013-02-19 23:43:00,36.3,19.4,30.18,NW,324,2.0,4.0,50,0.00,,,0.57,Wunderground v.1.15,2013-02-20 04:43:00,
2013-02-19 23:45:00,36.5,19.6,30.18,NW,315,5.0,5.0,50,0.00,,,0.57,Wunderground v.1.15,2013-02-20 04:45:00,
2013-02-19 23:48:00,36.6,19.2,30.18,NW,316,0.0,5.0,49,0.00,,,0.57,Wunderground v.1.15,2013-02-20 04:48:00,
2013-02-19 23:50:00,36.6,18.7,30.18,NW,316,2.0,2.0,48,0.00,,,0.57,Wunderground v.1.15,2013-02-20 04:50:00,
2013-02-19 23:53:00,36.7,18.8,30.19,NW,316,0.0,5.0,48,0.00,,,0.57,Wunderground v.1.15,2013-02-20 04:53:00,
2013-02-19 23:55:00,36.6,19.2,30.19,NW,315,3.0,5.0,49,0.00,,,0.57,Wunderground v.1.15,2013-02-20 04:55:00,
2013-02-19 23:58:00,36.5,19.1,30.19,NW,316,0.0,5.0,49,0.00,,,0.57,Wunderground v.1.15,2013-02-20 04:58:00,